Time,TemperatureF,DewpointF,PressureIn,WindDirection,WindDirectionDegrees,WindSpeedMPH,WindSpeedGustMPH,Humidity,HourlyPrecipIn,Conditions,Clouds,dailyrainin,SoftwareType,DateUTC
2013-02-08 00:00:00,45.3,41.1,28.82,North,5,0.0,0.0,85,0.00,,---,0.00,VWS V14.01,2013-02-08 06:00:00,
2013-02-08 00:01:00,45.3,41.1,28.82,North,5,0.0,0.0,85,0.00,,---,0.00,VWS V14.01,2013-02-08 06:01:00,
2013-02-08 00:02:00,45.1,40.9,28.82,North,5,0.0,0.0,85,0.00,,---,0.00,VWS V14.01,2013-02-08 06:02:00,
2013-02-08 00:05:00,45.1,40.9,28.82,North,5,0.0,0.0,85,0.00,,---,0.00,VWS V14.01,2013-02-08 06:05:00,
2013-02-08 00:06:00,45.1,40.9,28.82,North,5,0.0,0.0,85,0.00,,---,0.00,VWS V14.01,2013-02-08 06:06:00,
2013-02-08 00:07:00,45.0,40.7,28.82,North,5,0.0,0.0,85,0.00,,---,0.00,VWS V14.01,2013-02-08 06:07:00,
2013-02-08 00:10:00,45.0,40.7,28.85,North,5,0.0,0.0,85,0.00,,---,0.00,VWS V14.01,2013-02-08 06:10:00,
2013-02-08 00:11:00,45.0,40.7,28.85,North,5,0.0,0.0,85,0.00,,---,0.00,VWS V14.01,2013-02-08 06:11:00,
2013-02-08 00:12:00,44.8,40.5,28.85,North,5,0.0,0.0,85,0.00,,---,0.00,VWS V14.01,2013-02-08 06:12:00,
2013-02-08 00:15:00,44.8,40.5,28.85,North,5,0.0,0.0,85,0.00,,---,0.00,VWS V14.01,2013-02-08 06:15:00,
2013-02-08 00:16:00,44.8,40.5,28.85,North,5,0.0,0.0,85,0.00,,---,0.00,VWS V14.01,2013-02-08 06:16:00,
2013-02-08 00:17:00,44.8,40.5,28.85,North,5,0.0,0.0,85,0.00,,---,0.00,VWS V14.01,2013-02-08 06:17:00,
2013-02-08 00:21:00,44.8,40.5,28.85,North,5,0.0,0.0,85,0.00,,---,0.00,VWS V14.01,2013-02-08 06:21:00,
2013-02-08 00:22:00,44.6,40.4,28.85,North,5,0.0,0.0,85,0.00,,---,0.00,VWS V14.01,2013-02-08 06:22:00,
2013-02-08 00:26:00,44.6,40.4,28.82,North,5,0.0,0.0,85,0.00,,---,0.00,VWS V14.01,2013-02-08 06:26:00,
2013-02-08 00:27:00,44.6,40.4,28.82,North,5,0.0,0.0,85,0.00,,---,0.00,VWS V14.01,2013-02-08 06:27:00,
2013-02-08 00:31:00,44.6,40.4,28.82,North,5,0.0,0.0,85,0.00,,---,0.00,VWS V14.01,2013-02-08 06:31:00,
2013-02-08 00:32:00,44.6,40.4,28.82,North,5,0.0,0.0,85,0.00,,---,0.00,VWS V14.01,2013-02-08 06:32:00,
2013-02-08 00:36:00,44.8,40.5,28.82,North,5,0.0,0.0,85,0.00,,---,0.00,VWS V14.01,2013-02-08 06:36:00,
2013-02-08 00:37:00,44.8,40.5,28.82,North,5,0.0,0.0,85,0.00,,---,0.00,VWS V14.01,2013-02-08 06:37:00,
2013-02-08 00:41:00,44.8,40.5,28.82,North,5,0.0,0.0,85,0.00,,---,0.00,VWS V14.01,2013-02-08 06:41:00,
2013-02-08 00:42:00,44.8,40.5,28.82,North,5,0.0,0.0,85,0.00,,---,0.00,VWS V14.01,2013-02-08 06:42:00,
2013-02-08 00:46:00,44.8,40.9,28.82,North,5,0.0,0.0,86,0.00,,---,0.00,VWS V14.01,2013-02-08 06:46:00,
2013-02-08 00:47:00,45.0,41.0,28.82,North,5,0.0,0.0,86,0.00,,---,0.00,VWS V14.01,2013-02-08 06:47:00,
2013-02-08 00:48:00,45.0,41.0,28.82,North,5,0.0,0.0,86,0.00,,---,0.00,VWS V14.01,2013-02-08 06:48:00,
2013-02-08 00:51:00,45.0,41.0,28.82,North,5,0.0,0.0,86,0.00,,---,0.00,VWS V14.01,2013-02-08 06:51:00,
2013-02-08 00:52:00,45.0,41.0,28.82,North,5,0.0,0.0,86,0.00,,---,0.00,VWS V14.01,2013-02-08 06:52:00,
2013-02-08 00:53:00,45.0,41.0,28.82,North,5,0.0,0.0,86,0.00,,---,0.00,VWS V14.01,2013-02-08 06:53:00,
2013-02-08 00:56:00,45.1,41.2,28.82,North,5,0.0,0.0,86,0.00,,---,0.00,VWS V14.01,2013-02-08 06:56:00,
2013-02-08 00:57:00,45.1,41.2,28.82,North,5,0.0,0.0,86,0.00,,---,0.00,VWS V14.01,2013-02-08 06:57:00,
2013-02-08 00:58:00,45.1,41.2,28.82,North,5,0.0,0.0,86,0.00,,---,0.00,VWS V14.01,2013-02-08 06:58:00,
2013-02-08 01:01:00,45.1,41.2,28.82,North,5,0.0,0.0,86,0.00,,---,0.00,VWS V14.01,2013-02-08 07:01:00,
2013-02-08 01:02:00,45.1,41.2,28.82,North,5,0.0,0.0,86,0.00,,---,0.00,VWS V14.01,2013-02-08 07:02:00,
2013-02-08 01:03:00,45.1,41.2,28.82,North,5,0.0,0.0,86,0.00,,---,0.00,VWS V14.01,2013-02-08 07:03:00,
2013-02-08 01:06:00,45.3,41.4,28.82,North,5,0.0,0.0,86,0.00,,---,0.00,VWS V14.01,2013-02-08 07:06:00,
2013-02-08 01:07:00,45.3,41.4,28.82,North,5,0.0,0.0,86,0.00,,---,0.00,VWS V14.01,2013-02-08 07:07:00,
2013-02-08 01:09:00,45.1,41.2,28.82,North,5,0.0,0.0,86,0.00,,---,0.00,VWS V14.01,2013-02-08 07:09:00,
2013-02-08 01:11:00,45.3,41.4,28.82,North,5,0.0,0.0,86,0.00,,---,0.00,VWS V14.01,2013-02-08 07:11:00,
2013-02-08 01:12:00,45.3,41.4,28.82,North,5,0.0,0.0,86,0.00,,---,0.00,VWS V14.01,2013-02-08 07:12:00,
2013-02-08 01:14:00,45.3,41.4,28.82,North,5,0.0,0.0,86,0.00,,---,0.00,VWS V14.01,2013-02-08 07:14:00,
2013-02-08 01:16:00,45.3,41.4,28.82,North,5,0.0,0.0,86,0.00,,---,0.00,VWS V14.01,2013-02-08 07:16:00,
2013-02-08 01:17:00,45.3,41.4,28.82,North,5,0.0,0.0,86,0.00,,---,0.00,VWS V14.01,2013-02-08 07:17:00,
2013-02-08 01:18:00,45.3,41.4,28.82,North,5,0.0,0.0,86,0.00,,---,0.00,VWS V14.01,2013-02-08 07:18:00,
2013-02-08 01:19:00,45.3,41.4,28.82,North,5,0.0,0.0,86,0.00,,---,0.00,VWS V14.01,2013-02-08 07:19:00,
2013-02-08 01:21:00,45.3,41.4,28.82,North,5,0.0,0.0,86,0.00,,---,0.00,VWS V14.01,2013-02-08 07:21:00,
2013-02-08 01:22:00,45.3,41.4,28.82,North,5,0.0,0.0,86,0.00,,---,0.00,VWS V14.01,2013-02-08 07:22:00,
2013-02-08 01:23:00,45.3,41.4,28.82,North,5,0.0,0.0,86,0.00,,---,0.00,VWS V14.01,2013-02-08 07:23:00,
2013-02-08 01:24:00,45.3,41.4,28.82,North,5,0.0,0.0,86,0.00,,---,0.00,VWS V14.01,2013-02-08 07:24:00,
2013-02-08 01:27:00,45.3,41.4,28.82,North,5,0.0,0.0,86,0.00,,---,0.00,VWS V14.01,2013-02-08 07:27:00,
2013-02-08 01:28:00,45.5,41.6,28.82,North,5,0.0,0.0,86,0.00,,---,0.00,VWS V14.01,2013-02-08 07:28:00,
2013-02-08 01:29:00,45.5,41.6,28.82,North,5,0.0,0.0,86,0.00,,---,0.00,VWS V14.01,2013-02-08 07:29:00,
2013-02-08 01:32:00,45.5,41.6,28.82,North,5,0.0,0.0,86,0.00,,---,0.00,VWS V14.01,2013-02-08 07:32:00,
2013-02-08 01:33:00,45.5,41.6,28.82,North,5,0.0,0.0,86,0.00,,---,0.00,VWS V14.01,2013-02-08 07:33:00,
2013-02-08 01:34:00,45.5,41.6,28.82,North,5,0.0,0.0,86,0.00,,---,0.00,VWS V14.01,2013-02-08 07:34:00,
2013-02-08 01:37:00,45.5,41.9,28.82,North,5,0.0,0.0,87,0.00,,---,0.00,VWS V14.01,2013-02-08 07:37:00,
2013-02-08 01:38:00,45.5,41.9,28.82,North,5,0.0,0.0,87,0.00,,---,0.00,VWS V14.01,2013-02-08 07:38:00,
2013-02-08 01:39:00,45.7,42.0,28.82,North,5,0.0,0.0,87,0.00,,---,0.00,VWS V14.01,2013-02-08 07:39:00,
2013-02-08 01:42:00,45.7,42.0,28.82,North,5,0.0,0.0,87,0.00,,---,0.00,VWS V14.01,2013-02-08 07:42:00,
2013-02-08 01:43:00,45.7,42.0,28.82,North,5,0.0,0.0,87,0.00,,---,0.00,VWS V14.01,2013-02-08 07:43:00,
2013-02-08 01:44:00,45.7,42.0,28.82,North,5,0.0,0.0,87,0.00,,---,0.00,VWS V14.01,2013-02-08 07:44:00,
2013-02-08 01:47:00,45.7,42.0,28.82,North,5,0.0,0.0,87,0.00,,---,0.00,VWS V14.01,2013-02-08 07:47:00,
2013-02-08 01:48:00,45.7,42.0,28.82,North,5,0.0,0.0,87,0.00,,---,0.00,VWS V14.01,2013-02-08 07:48:00,
2013-02-08 01:49:00,45.7,42.0,28.82,North,5,0.0,0.0,87,0.00,,---,0.00,VWS V14.01,2013-02-08 07:49:00,
2013-02-08 01:52:00,45.9,42.2,28.82,North,5,0.0,0.0,87,0.00,,---,0.00,VWS V14.01,2013-02-08 07:52:00,
2013-02-08 01:53:00,45.9,42.2,28.82,North,5,0.0,0.0,87,0.00,,---,0.00,VWS V14.01,2013-02-08 07:53:00,
2013-02-08 01:54:00,45.9,42.2,28.82,North,5,0.0,0.0,87,0.00,,---,0.00,VWS V14.01,2013-02-08 07:54:00,
2013-02-08 01:57:00,45.9,42.2,28.82,North,5,0.0,0.0,87,0.00,,---,0.00,VWS V14.01,2013-02-08 07:57:00,
2013-02-08 01:58:00,45.9,42.2,28.82,North,5,0.0,0.0,87,0.00,,---,0.00,VWS V14.01,2013-02-08 07:58:00,
2013-02-08 01:59:00,45.9,42.2,28.82,North,5,0.0,0.0,87,0.00,,---,0.00,VWS V14.01,2013-02-08 07:59:00,
2013-02-08 02:02:00,45.9,42.2,28.82,North,5,0.0,0.0,87,0.00,,---,0.00,VWS V14.01,2013-02-08 08:02:00,
2013-02-08 02:03:00,45.9,42.2,28.82,North,5,0.0,0.0,87,0.00,,---,0.00,VWS V14.01,2013-02-08 08:03:00,
2013-02-08 02:04:00,45.9,42.2,28.82,North,5,0.0,0.0,87,0.00,,---,0.00,VWS V14.01,2013-02-08 08:04:00,
2013-02-08 02:05:00,45.9,42.2,28.82,North,5,0.0,0.0,87,0.00,,---,0.00,VWS V14.01,2013-02-08 08:05:00,
2013-02-08 02:07:00,45.9,42.2,28.82,North,5,0.0,0.0,87,0.00,,---,0.00,VWS V14.01,2013-02-08 08:07:00,
2013-02-08 02:08:00,45.9,42.2,28.82,North,5,0.0,0.0,87,0.00,,---,0.00,VWS V14.01,2013-02-08 08:08:00,
2013-02-08 02:09:00,45.9,42.2,28.82,North,5,0.0,0.0,87,0.00,,---,0.00,VWS V14.01,2013-02-08 08:09:00,
2013-02-08 02:10:00,45.9,42.2,28.82,North,5,0.0,0.0,87,0.00,,---,0.00,VWS V14.01,2013-02-08 08:10:00,
2013-02-08 02:12:00,45.9,42.2,28.82,North,5,0.0,0.0,87,0.00,,---,0.00,VWS V14.01,2013-02-08 08:12:00,
2013-02-08 02:13:00,45.9,42.2,28.82,North,5,0.0,0.0,87,0.00,,---,0.00,VWS V14.01,2013-02-08 08:13:00,
2013-02-08 02:14:00,45.9,42.2,28.82,North,5,0.0,0.0,87,0.00,,---,0.00,VWS V14.01,2013-02-08 08:14:00,
2013-02-08 02:15:00,45.9,42.2,28.82,North,5,0.0,0.0,87,0.00,,---,0.00,VWS V14.01,2013-02-08 08:15:00,
2013-02-08 02:18:00,45.9,42.2,28.82,North,5,0.0,0.0,87,0.00,,---,0.00,VWS V14.01,2013-02-08 08:18:00,
2013-02-08 02:19:00,45.9,42.2,28.82,North,5,0.0,0.0,87,0.00,,---,0.00,VWS V14.01,2013-02-08 08:19:00,
2013-02-08 02:20:00,46.0,42.4,28.82,North,5,0.0,0.0,87,0.00,,---,0.00,VWS V14.01,2013-02-08 08:20:00,
2013-02-08 02:23:00,46.0,42.4,28.82,North,5,0.0,0.0,87,0.00,,---,0.00,VWS V14.01,2013-02-08 08:23:00,
2013-02-08 02:24:00,46.0,42.4,28.82,North,5,0.0,0.0,87,0.00,,---,0.00,VWS V14.01,2013-02-08 08:24:00,
2013-02-08 02:25:00,46.0,42.4,28.82,North,5,0.0,0.0,87,0.00,,---,0.00,VWS V14.01,2013-02-08 08:25:00,
2013-02-08 02:28:00,46.0,42.4,28.82,North,5,0.0,0.0,87,0.00,,---,0.00,VWS V14.01,2013-02-08 08:28:00,
2013-02-08 02:29:00,46.0,42.4,28.82,North,5,0.0,0.0,87,0.00,,---,0.00,VWS V14.01,2013-02-08 08:29:00,
2013-02-08 02:30:00,46.0,42.4,28.82,North,5,0.0,0.0,87,0.00,,---,0.00,VWS V14.01,2013-02-08 08:30:00,
2013-02-08 02:33:00,46.0,42.4,28.82,North,5,0.0,0.0,87,0.00,,---,0.00,VWS V14.01,2013-02-08 08:33:00,
2013-02-08 02:34:00,46.0,42.4,28.82,North,5,0.0,0.0,87,0.00,,---,0.00,VWS V14.01,2013-02-08 08:34:00,
2013-02-08 02:35:00,46.0,42.4,28.82,North,5,0.0,0.0,87,0.00,,---,0.00,VWS V14.01,2013-02-08 08:35:00,
2013-02-08 02:38:00,46.0,42.4,28.82,North,5,0.0,0.0,87,0.00,,---,0.00,VWS V14.01,2013-02-08 08:38:00,
2013-02-08 02:39:00,46.0,42.4,28.82,North,5,0.0,0.0,87,0.00,,---,0.00,VWS V14.01,2013-02-08 08:39:00,
2013-02-08 02:40:00,45.9,42.2,28.82,North,5,0.0,0.0,87,0.00,,---,0.00,VWS V14.01,2013-02-08 08:40:00,
2013-02-08 02:43:00,46.0,42.4,28.82,North,5,0.0,0.0,87,0.00,,---,0.00,VWS V14.01,2013-02-08 08:43:00,
2013-02-08 02:44:00,46.0,42.4,28.82,North,5,0.0,0.0,87,0.00,,---,0.00,VWS V14.01,2013-02-08 08:44:00,
2013-02-08 02:45:00,45.9,42.2,28.82,North,5,0.0,0.0,87,0.00,,---,0.00,VWS V14.01,2013-02-08 08:45:00,
2013-02-08 02:48:00,45.9,42.2,28.82,North,5,0.0,0.0,87,0.00,,---,0.00,VWS V14.01,2013-02-08 08:48:00,
2013-02-08 02:49:00,45.9,42.2,28.82,North,5,0.0,0.0,87,0.00,,---,0.00,VWS V14.01,2013-02-08 08:49:00,
2013-02-08 02:50:00,45.9,42.2,28.82,North,5,0.0,0.0,87,0.00,,---,0.00,VWS V14.01,2013-02-08 08:50:00,
2013-02-08 02:51:00,45.9,42.2,28.82,North,5,0.0,0.0,87,0.00,,---,0.00,VWS V14.01,2013-02-08 08:51:00,
2013-02-08 02:53:00,45.9,42.2,28.82,North,5,0.0,0.0,87,0.00,,---,0.00,VWS V14.01,2013-02-08 08:53:00,
2013-02-08 02:54:00,45.9,42.2,28.82,North,5,0.0,0.0,87,0.00,,---,0.00,VWS V14.01,2013-02-08 08:54:00,
2013-02-08 02:55:00,45.9,42.2,28.82,North,5,0.0,0.0,87,0.00,,---,0.00,VWS V14.01,2013-02-08 08:55:00,
2013-02-08 02:56:00,45.9,42.2,28.82,North,5,0.0,0.0,87,0.00,,---,0.00,VWS V14.01,2013-02-08 08:56:00,
2013-02-08 02:58:00,45.9,42.2,28.82,North,5,0.0,0.0,87,0.00,,---,0.00,VWS V14.01,2013-02-08 08:58:00,
2013-02-08 02:59:00,45.9,42.2,28.82,North,5,0.0,0.0,87,0.00,,---,0.00,VWS V14.01,2013-02-08 08:59:00,
2013-02-08 03:00:00,45.9,42.2,28.82,North,5,0.0,0.0,87,0.00,,---,0.00,VWS V14.01,2013-02-08 09:00:00,
2013-02-08 03:01:00,45.9,42.2,28.82,North,5,0.0,0.0,87,0.00,,---,0.00,VWS V14.01,2013-02-08 09:01:00,
2013-02-08 03:03:00,45.9,42.5,28.82,North,5,0.0,0.0,88,0.00,,---,0.00,VWS V14.01,2013-02-08 09:03:00,
2013-02-08 03:04:00,45.9,42.5,28.82,North,5,0.0,0.0,88,0.00,,---,0.00,VWS V14.01,2013-02-08 09:04:00,
2013-02-08 03:06:00,45.9,42.5,28.82,North,5,0.0,0.0,88,0.00,,---,0.00,VWS V14.01,2013-02-08 09:06:00,
2013-02-08 03:08:00,45.9,42.5,28.82,North,5,0.0,0.0,88,0.00,,---,0.00,VWS V14.01,2013-02-08 09:08:00,
2013-02-08 03:09:00,45.9,42.5,28.82,North,5,0.0,0.0,88,0.00,,---,0.00,VWS V14.01,2013-02-08 09:09:00,
2013-02-08 03:11:00,45.9,42.5,28.82,North,5,0.0,0.0,88,0.00,,---,0.00,VWS V14.01,2013-02-08 09:11:00,
2013-02-08 03:13:00,45.9,42.5,28.82,North,5,0.0,0.0,88,0.00,,---,0.00,VWS V14.01,2013-02-08 09:13:00,
2013-02-08 03:14:00,45.9,42.5,28.82,North,5,0.0,0.0,88,0.00,,---,0.00,VWS V14.01,2013-02-08 09:14:00,
2013-02-08 03:16:00,45.9,42.5,28.82,North,5,0.0,0.0,88,0.00,,---,0.00,VWS V14.01,2013-02-08 09:16:00,
2013-02-08 03:19:00,45.9,42.5,28.82,SSE,164,0.0,0.0,88,0.00,,---,0.00,VWS V14.01,2013-02-08 09:19:00,
2013-02-08 03:21:00,45.9,42.5,28.82,South,175,0.0,0.0,88,0.00,,---,0.00,VWS V14.01,2013-02-08 09:21:00,
2013-02-08 03:24:00,45.9,42.5,28.82,South,175,0.0,0.0,88,0.00,,---,0.00,VWS V14.01,2013-02-08 09:24:00,
2013-02-08 03:26:00,45.9,42.5,28.82,SSE,157,0.0,0.0,88,0.00,,---,0.00,VWS V14.01,2013-02-08 09:26:00,
2013-02-08 03:29:00,45.7,42.3,28.82,SSE,166,2.2,2.2,88,0.00,,---,0.00,VWS V14.01,2013-02-08 09:29:00,
2013-02-08 03:31:00,45.7,42.3,28.82,SSE,166,2.2,2.2,88,0.00,,---,0.00,VWS V14.01,2013-02-08 09:31:00,
2013-02-08 03:34:00,45.7,42.3,28.82,SSE,168,2.2,2.2,88,0.00,,---,0.00,VWS V14.01,2013-02-08 09:34:00,
2013-02-08 03:35:00,45.7,42.3,28.82,SSE,168,2.2,2.2,88,0.00,,---,0.00,VWS V14.01,2013-02-08 09:35:00,
2013-02-08 03:36:00,45.7,42.3,28.82,South,178,3.1,3.1,88,0.00,,---,0.00,VWS V14.01,2013-02-08 09:36:00,
2013-02-08 03:37:00,45.7,42.3,28.82,South,178,3.1,3.1,88,0.00,,---,0.00,VWS V14.01,2013-02-08 09:37:00,
2013-02-08 03:39:00,45.7,42.3,28.82,South,178,0.0,2.7,88,0.00,,---,0.00,VWS V14.01,2013-02-08 09:39:00,
2013-02-08 03:40:00,45.7,42.3,28.82,SSE,159,3.6,3.6,88,0.00,,---,0.00,VWS V14.01,2013-02-08 09:40:00,
2013-02-08 03:41:00,45.7,42.3,28.82,South,181,2.7,3.6,88,0.00,,---,0.00,VWS V14.01,2013-02-08 09:41:00,
2013-02-08 03:42:00,45.7,42.3,28.82,South,181,2.7,3.6,88,0.00,,---,0.00,VWS V14.01,2013-02-08 09:42:00,
2013-02-08 03:44:00,45.7,42.3,28.82,South,181,2.7,2.7,88,0.00,,---,0.00,VWS V14.01,2013-02-08 09:44:00,
2013-02-08 03:45:00,45.7,42.3,28.82,South,181,2.7,2.7,88,0.00,,---,0.00,VWS V14.01,2013-02-08 09:45:00,
2013-02-08 03:46:00,45.7,42.3,28.82,South,181,2.7,2.7,88,0.00,,---,0.00,VWS V14.01,2013-02-08 09:46:00,
2013-02-08 03:47:00,45.7,42.3,28.82,South,171,5.4,5.4,88,0.00,,---,0.00,VWS V14.01,2013-02-08 09:47:00,
2013-02-08 03:49:00,45.9,42.8,28.82,South,171,5.4,5.4,89,0.00,,---,0.00,VWS V14.01,2013-02-08 09:49:00,
2013-02-08 03:50:00,45.9,42.8,28.82,South,171,5.4,5.4,89,0.00,,---,0.00,VWS V14.01,2013-02-08 09:50:00,
2013-02-08 03:51:00,45.9,42.8,28.82,SSE,167,4.0,4.0,89,0.00,,---,0.00,VWS V14.01,2013-02-08 09:51:00,
2013-02-08 03:52:00,45.9,42.8,28.82,SSE,167,4.0,4.0,89,0.00,,---,0.00,VWS V14.01,2013-02-08 09:52:00,
2013-02-08 03:54:00,45.9,42.8,28.82,SSE,158,3.1,3.1,89,0.00,,---,0.00,VWS V14.01,2013-02-08 09:54:00,
2013-02-08 03:55:00,45.9,42.8,28.82,SSE,158,3.1,3.1,89,0.00,,---,0.00,VWS V14.01,2013-02-08 09:55:00,
2013-02-08 03:56:00,45.9,42.8,28.82,SSE,159,5.8,5.8,89,0.00,,---,0.00,VWS V14.01,2013-02-08 09:56:00,
2013-02-08 03:57:00,45.9,42.8,28.82,SSE,159,5.8,5.8,89,0.00,,---,0.00,VWS V14.01,2013-02-08 09:57:00,
2013-02-08 04:00:00,45.9,42.8,28.82,South,171,5.4,5.4,89,0.00,,---,0.00,VWS V14.01,2013-02-08 10:00:00,
2013-02-08 04:01:00,45.9,42.8,28.82,SE,135,4.0,5.8,89,0.00,,---,0.00,VWS V14.01,2013-02-08 10:01:00,
2013-02-08 04:02:00,45.9,42.8,28.82,SE,135,4.0,4.0,89,0.00,,---,0.00,VWS V14.01,2013-02-08 10:02:00,
2013-02-08 04:05:00,45.9,43.1,28.82,SSW,207,7.6,7.6,90,0.00,,---,0.00,VWS V14.01,2013-02-08 10:05:00,
2013-02-08 04:06:00,45.9,43.1,28.82,SSW,207,7.6,7.6,90,0.00,,---,0.00,VWS V14.01,2013-02-08 10:06:00,
2013-02-08 04:07:00,45.9,43.1,28.82,SSW,207,7.6,7.6,90,0.00,,---,0.00,VWS V14.01,2013-02-08 10:07:00,
2013-02-08 04:10:00,45.9,43.1,28.82,South,177,3.1,3.1,90,0.00,,---,0.00,VWS V14.01,2013-02-08 10:10:00,
2013-02-08 04:11:00,45.9,43.1,28.82,SSE,168,5.8,5.8,90,0.00,,---,0.00,VWS V14.01,2013-02-08 10:11:00,
2013-02-08 04:12:00,45.9,43.1,28.79,SSE,168,5.4,5.4,90,0.00,,---,0.00,VWS V14.01,2013-02-08 10:12:00,
2013-02-08 04:15:00,45.9,43.1,28.79,South,186,2.7,2.7,90,0.00,,---,0.00,VWS V14.01,2013-02-08 10:15:00,
2013-02-08 04:16:00,45.9,43.1,28.79,South,186,2.7,2.7,90,0.00,,---,0.00,VWS V14.01,2013-02-08 10:16:00,
2013-02-08 04:18:00,45.9,43.1,28.79,South,173,3.6,3.6,90,0.00,,---,0.00,VWS V14.01,2013-02-08 10:18:00,
2013-02-08 04:20:00,45.9,43.1,28.79,South,173,3.6,3.6,90,0.00,,---,0.00,VWS V14.01,2013-02-08 10:20:00,
2013-02-08 04:21:00,45.7,43.2,28.79,SE,124,8.3,8.3,91,0.00,,---,0.00,VWS V14.01,2013-02-08 10:21:00,
2013-02-08 04:23:00,45.7,43.2,28.79,South,173,6.3,6.3,91,0.00,,---,0.00,VWS V14.01,2013-02-08 10:23:00,
2013-02-08 04:25:00,45.7,43.2,28.79,SE,138,5.4,5.4,91,0.00,,---,0.00,VWS V14.01,2013-02-08 10:25:00,
2013-02-08 04:26:00,45.7,43.2,28.79,South,170,5.8,5.8,91,0.00,,---,0.00,VWS V14.01,2013-02-08 10:26:00,
2013-02-08 04:28:00,45.7,43.2,28.79,WSW,257,5.4,5.8,91,0.00,,---,0.00,VWS V14.01,2013-02-08 10:28:00,
2013-02-08 04:30:00,45.7,43.2,28.79,SSW,194,5.4,5.4,91,0.00,,---,0.00,VWS V14.01,2013-02-08 10:30:00,
2013-02-08 04:31:00,45.7,43.2,28.79,South,175,3.1,3.1,91,0.00,,---,0.00,VWS V14.01,2013-02-08 10:31:00,
2013-02-08 04:33:00,45.7,43.2,28.79,South,175,3.1,3.1,91,0.00,,---,0.00,VWS V14.01,2013-02-08 10:33:00,
2013-02-08 04:35:00,45.7,43.2,28.79,South,169,5.4,6.3,91,0.00,,---,0.00,VWS V14.01,2013-02-08 10:35:00,
2013-02-08 04:36:00,45.7,43.2,28.79,South,169,5.4,6.3,91,0.00,,---,0.00,VWS V14.01,2013-02-08 10:36:00,
2013-02-08 04:38:00,45.7,43.5,28.79,SSE,147,4.0,4.0,92,0.00,,---,0.00,VWS V14.01,2013-02-08 10:38:00,
2013-02-08 04:40:00,45.7,43.5,28.79,South,176,3.1,3.1,92,0.00,,---,0.00,VWS V14.01,2013-02-08 10:40:00,
2013-02-08 04:41:00,45.7,43.5,28.79,South,176,3.1,3.1,92,0.00,,---,0.00,VWS V14.01,2013-02-08 10:41:00,
2013-02-08 04:43:00,45.7,43.5,28.82,SW,232,3.1,3.1,92,0.00,,---,0.00,VWS V14.01,2013-02-08 10:43:00,
2013-02-08 04:46:00,45.7,43.5,28.82,SSW,194,3.6,3.6,92,0.00,,---,0.00,VWS V14.01,2013-02-08 10:46:00,
2013-02-08 04:47:00,45.7,43.5,28.82,SSW,194,3.6,3.6,92,0.00,,---,0.00,VWS V14.01,2013-02-08 10:47:00,
2013-02-08 04:48:00,45.7,43.5,28.82,SSE,164,3.1,3.1,92,0.00,,---,0.00,VWS V14.01,2013-02-08 10:48:00,
2013-02-08 04:51:00,45.7,43.5,28.82,South,182,2.2,3.1,92,0.00,,---,0.00,VWS V14.01,2013-02-08 10:51:00,
2013-02-08 04:52:00,45.7,43.5,28.82,South,182,2.2,2.2,92,0.00,,---,0.00,VWS V14.01,2013-02-08 10:52:00,
2013-02-08 04:53:00,45.7,43.5,28.82,South,173,3.1,3.1,92,0.00,,---,0.00,VWS V14.01,2013-02-08 10:53:00,
2013-02-08 04:56:00,45.7,43.5,28.82,South,173,3.1,3.1,92,0.00,,---,0.00,VWS V14.01,2013-02-08 10:56:00,
2013-02-08 04:57:00,45.7,43.5,28.82,SSE,168,3.6,3.6,92,0.00,,---,0.00,VWS V14.01,2013-02-08 10:57:00,
2013-02-08 04:58:00,45.7,43.5,28.82,South,174,6.7,6.7,92,0.00,,---,0.00,VWS V14.01,2013-02-08 10:58:00,
2013-02-08 05:01:00,45.7,43.5,28.82,SSW,196,6.3,6.3,92,0.00,,---,0.00,VWS V14.01,2013-02-08 11:01:00,
2013-02-08 05:02:00,45.7,43.5,28.82,SSW,197,5.4,6.3,92,0.00,,---,0.00,VWS V14.01,2013-02-08 11:02:00,
2013-02-08 05:03:00,45.9,44.0,28.82,SSW,197,5.4,5.4,93,0.00,,---,0.00,VWS V14.01,2013-02-08 11:03:00,
2013-02-08 05:06:00,45.9,44.0,28.82,South,176,2.7,2.7,93,0.00,,---,0.00,VWS V14.01,2013-02-08 11:06:00,
2013-02-08 05:07:00,45.9,44.0,28.82,South,176,4.0,4.0,93,0.00,,---,0.00,VWS V14.01,2013-02-08 11:07:00,
2013-02-08 05:08:00,45.9,44.0,28.82,South,176,4.0,4.0,93,0.00,,---,0.00,VWS V14.01,2013-02-08 11:08:00,
2013-02-08 05:11:00,45.9,44.0,28.82,SSE,166,4.0,4.0,93,0.00,,---,0.00,VWS V14.01,2013-02-08 11:11:00,
2013-02-08 05:12:00,45.9,44.0,28.82,SSE,166,4.0,4.0,93,0.00,,---,0.00,VWS V14.01,2013-02-08 11:12:00,
2013-02-08 05:13:00,45.9,44.0,28.82,SSE,166,4.0,4.0,93,0.00,,---,0.00,VWS V14.01,2013-02-08 11:13:00,
2013-02-08 05:16:00,45.9,44.0,28.82,SSE,166,4.0,4.0,93,0.00,,---,0.00,VWS V14.01,2013-02-08 11:16:00,
2013-02-08 05:17:00,45.9,44.0,28.82,South,170,5.4,5.4,93,0.00,,---,0.00,VWS V14.01,2013-02-08 11:17:00,
2013-02-08 05:18:00,45.9,44.0,28.82,South,170,5.4,5.4,93,0.00,,---,0.00,VWS V14.01,2013-02-08 11:18:00,
2013-02-08 05:21:00,45.9,44.0,28.82,South,171,5.8,5.8,93,0.00,,---,0.00,VWS V14.01,2013-02-08 11:21:00,
2013-02-08 05:22:00,45.9,44.0,28.82,South,171,5.8,5.8,93,0.00,,---,0.00,VWS V14.01,2013-02-08 11:22:00,
2013-02-08 05:24:00,46.0,44.1,28.82,South,171,5.8,5.8,93,0.00,,---,0.00,VWS V14.01,2013-02-08 11:24:00,
2013-02-08 05:26:00,46.0,44.1,28.82,West,276,3.6,3.6,93,0.00,,---,0.00,VWS V14.01,2013-02-08 11:26:00,
2013-02-08 05:27:00,46.0,44.1,28.82,West,276,3.6,3.6,93,0.00,,---,0.00,VWS V14.01,2013-02-08 11:27:00,
2013-02-08 05:29:00,46.0,44.1,28.82,SW,229,0.0,3.6,93,0.00,,---,0.00,VWS V14.01,2013-02-08 11:29:00,
2013-02-08 05:31:00,46.0,44.1,28.82,SW,232,0.0,0.0,93,0.00,,---,0.00,VWS V14.01,2013-02-08 11:31:00,
2013-02-08 05:32:00,46.0,44.1,28.82,SW,232,0.0,0.0,93,0.00,,---,0.00,VWS V14.01,2013-02-08 11:32:00,
2013-02-08 05:34:00,46.0,44.1,28.82,SSE,153,2.7,2.7,93,0.00,,---,0.00,VWS V14.01,2013-02-08 11:34:00,
2013-02-08 05:36:00,46.0,44.1,28.82,West,268,5.8,5.8,93,0.00,,---,0.00,VWS V14.01,2013-02-08 11:36:00,
2013-02-08 05:37:00,46.0,44.1,28.82,West,268,5.8,5.8,93,0.00,,---,0.00,VWS V14.01,2013-02-08 11:37:00,
2013-02-08 05:39:00,46.0,44.1,28.82,SSW,211,0.0,4.0,93,0.00,,---,0.00,VWS V14.01,2013-02-08 11:39:00,
2013-02-08 05:41:00,46.2,44.3,28.82,SSW,204,0.0,0.0,93,0.00,,---,0.00,VWS V14.01,2013-02-08 11:41:00,
2013-02-08 05:42:00,46.2,44.3,28.82,SSW,213,0.0,0.0,93,0.00,,---,0.00,VWS V14.01,2013-02-08 11:42:00,
2013-02-08 05:44:00,46.2,44.3,28.82,SSE,165,4.9,4.9,93,0.00,,---,0.00,VWS V14.01,2013-02-08 11:44:00,
2013-02-08 05:46:00,46.2,44.3,28.82,South,180,2.7,2.7,93,0.00,,---,0.00,VWS V14.01,2013-02-08 11:46:00,
2013-02-08 05:47:00,46.2,44.6,28.82,South,180,2.7,2.7,94,0.00,,---,0.00,VWS V14.01,2013-02-08 11:47:00,
2013-02-08 05:49:00,46.2,44.6,28.82,South,169,3.6,3.6,94,0.00,,---,0.00,VWS V14.01,2013-02-08 11:49:00,
2013-02-08 05:52:00,46.2,44.6,28.82,South,176,3.1,3.1,94,0.00,,---,0.00,VWS V14.01,2013-02-08 11:52:00,
2013-02-08 05:54:00,46.2,44.6,28.82,SSE,150,3.1,3.1,94,0.00,,---,0.00,VWS V14.01,2013-02-08 11:54:00,
2013-02-08 05:57:00,46.2,44.6,28.82,SSE,161,3.1,3.1,94,0.00,,---,0.00,VWS V14.01,2013-02-08 11:57:00,
2013-02-08 05:59:00,46.2,44.6,28.82,South,172,2.7,3.1,94,0.00,,---,0.00,VWS V14.01,2013-02-08 11:59:00,
2013-02-08 06:02:00,46.2,44.6,28.82,South,179,3.1,3.1,94,0.00,,---,0.00,VWS V14.01,2013-02-08 12:02:00,
2013-02-08 06:03:00,46.2,44.6,28.82,South,174,4.0,4.0,94,0.00,,---,0.00,VWS V14.01,2013-02-08 12:03:00,
2013-02-08 06:04:00,46.2,44.6,28.82,South,172,2.2,4.0,94,0.00,,---,0.00,VWS V14.01,2013-02-08 12:04:00,
2013-02-08 06:07:00,46.2,44.6,28.82,South,170,6.3,6.3,94,0.00,,---,0.00,VWS V14.01,2013-02-08 12:07:00,
2013-02-08 06:08:00,46.2,44.6,28.82,South,170,6.3,6.3,94,0.00,,---,0.00,VWS V14.01,2013-02-08 12:08:00,
2013-02-08 06:09:00,46.2,44.6,28.82,SSE,166,6.3,6.3,94,0.00,,---,0.00,VWS V14.01,2013-02-08 12:09:00,
2013-02-08 06:12:00,46.4,44.5,28.85,South,180,4.0,5.8,93,0.00,,---,0.00,VWS V14.01,2013-02-08 12:12:00,
2013-02-08 06:13:00,46.4,44.5,28.85,South,180,4.0,4.0,93,0.00,,---,0.00,VWS V14.01,2013-02-08 12:13:00,
2013-02-08 06:15:00,46.4,44.5,28.85,South,176,0.0,0.0,93,0.00,,---,0.00,VWS V14.01,2013-02-08 12:15:00,
2013-02-08 06:17:00,46.4,44.8,28.85,South,169,2.7,2.7,94,0.00,,---,0.00,VWS V14.01,2013-02-08 12:17:00,
2013-02-08 06:18:00,46.4,44.8,28.85,SE,138,3.6,3.6,94,0.00,,---,0.00,VWS V14.01,2013-02-08 12:18:00,
2013-02-08 06:20:00,46.4,44.8,28.85,South,172,4.0,4.0,94,0.00,,---,0.00,VWS V14.01,2013-02-08 12:20:00,
2013-02-08 06:22:00,46.4,44.8,28.85,SSE,161,3.6,3.6,94,0.00,,---,0.00,VWS V14.01,2013-02-08 12:22:00,
2013-02-08 06:23:00,46.4,44.8,28.85,SSE,161,3.6,3.6,94,0.00,,---,0.00,VWS V14.01,2013-02-08 12:23:00,
2013-02-08 06:25:00,46.4,44.8,28.85,South,187,3.1,3.1,94,0.00,,---,0.00,VWS V14.01,2013-02-08 12:25:00,
2013-02-08 06:28:00,46.4,44.8,28.85,South,172,3.1,3.1,94,0.00,,---,0.00,VWS V14.01,2013-02-08 12:28:00,
2013-02-08 06:30:00,46.4,44.8,28.85,South,184,2.7,2.7,94,0.00,,---,0.00,VWS V14.01,2013-02-08 12:30:00,
2013-02-08 06:33:00,46.4,44.8,28.85,South,171,2.7,2.7,94,0.00,,---,0.00,VWS V14.01,2013-02-08 12:33:00,
2013-02-08 06:35:00,46.4,44.8,28.85,South,183,3.1,3.1,94,0.00,,---,0.00,VWS V14.01,2013-02-08 12:35:00,
2013-02-08 06:38:00,46.4,44.8,28.85,SW,228,4.0,4.0,94,0.00,,---,0.00,VWS V14.01,2013-02-08 12:38:00,
2013-02-08 06:39:00,46.4,44.8,28.85,SW,228,4.0,4.0,94,0.00,,---,0.00,VWS V14.01,2013-02-08 12:39:00,
2013-02-08 06:40:00,46.4,44.8,28.85,South,185,3.1,3.1,94,0.00,,---,0.00,VWS V14.01,2013-02-08 12:40:00,
2013-02-08 06:43:00,46.4,44.8,28.85,SSW,206,0.0,0.0,94,0.00,,---,0.00,VWS V14.01,2013-02-08 12:43:00,
2013-02-08 06:44:00,46.4,44.8,28.85,SW,219,0.0,0.0,94,0.00,,---,0.00,VWS V14.01,2013-02-08 12:44:00,
2013-02-08 06:45:00,46.4,44.8,28.85,NW,325,2.7,2.7,94,0.00,,---,0.00,VWS V14.01,2013-02-08 12:45:00,
2013-02-08 06:48:00,46.4,44.8,28.85,NW,321,0.0,0.0,94,0.00,,---,0.00,VWS V14.01,2013-02-08 12:48:00,
2013-02-08 06:49:00,46.4,44.8,28.85,WSW,251,2.2,3.1,94,0.00,,---,0.00,VWS V14.01,2013-02-08 12:49:00,
2013-02-08 06:51:00,46.6,45.0,28.85,SSE,168,4.0,4.0,94,0.00,,---,0.00,VWS V14.01,2013-02-08 12:51:00,
2013-02-08 06:53:00,46.6,45.0,28.85,WSW,238,3.1,4.0,94,0.00,,---,0.00,VWS V14.01,2013-02-08 12:53:00,
2013-02-08 06:54:00,46.6,45.0,28.85,WSW,238,3.1,3.1,94,0.00,,---,0.00,VWS V14.01,2013-02-08 12:54:00,
2013-02-08 06:56:00,46.6,45.0,28.88,South,174,3.1,3.1,94,0.00,,---,0.00,VWS V14.01,2013-02-08 12:56:00,
2013-02-08 06:58:00,46.6,45.0,28.88,South,175,2.7,3.1,94,0.00,,---,0.00,VWS V14.01,2013-02-08 12:58:00,
2013-02-08 06:59:00,46.6,45.0,28.88,South,169,3.6,3.6,94,0.00,,---,0.00,VWS V14.01,2013-02-08 12:59:00,
2013-02-08 07:01:00,46.6,45.0,28.88,South,176,0.0,3.6,94,0.00,,---,0.00,VWS V14.01,2013-02-08 13:01:00,
2013-02-08 07:03:00,46.6,45.0,28.88,West,276,0.0,0.0,94,0.00,,---,0.00,VWS V14.01,2013-02-08 13:03:00,
2013-02-08 07:04:00,46.6,45.0,28.88,West,276,0.0,0.0,94,0.00,,---,0.00,VWS V14.01,2013-02-08 13:04:00,
2013-02-08 07:07:00,46.8,45.1,28.88,West,276,0.0,0.0,94,0.00,,---,0.00,VWS V14.01,2013-02-08 13:07:00,
2013-02-08 07:08:00,46.8,45.1,28.88,West,276,0.0,0.0,94,0.00,,---,0.00,VWS V14.01,2013-02-08 13:08:00,
2013-02-08 07:09:00,46.8,45.1,28.88,West,276,0.0,0.0,94,0.00,,---,0.00,VWS V14.01,2013-02-08 13:09:00,
2013-02-08 07:12:00,46.8,45.1,28.88,West,276,0.0,0.0,94,0.00,,---,0.00,VWS V14.01,2013-02-08 13:12:00,
2013-02-08 07:13:00,46.8,45.1,28.88,West,276,0.0,0.0,94,0.00,,---,0.00,VWS V14.01,2013-02-08 13:13:00,
2013-02-08 07:14:00,46.8,45.1,28.88,West,276,0.0,0.0,94,0.00,,---,0.00,VWS V14.01,2013-02-08 13:14:00,
2013-02-08 07:17:00,46.8,45.1,28.88,WSW,246,0.0,3.1,94,0.00,,---,0.00,VWS V14.01,2013-02-08 13:17:00,
2013-02-08 07:18:00,46.8,45.1,28.88,WSW,246,0.0,0.0,94,0.00,,---,0.00,VWS V14.01,2013-02-08 13:18:00,
2013-02-08 07:19:00,46.8,45.1,28.88,WSW,246,0.0,0.0,94,0.00,,---,0.00,VWS V14.01,2013-02-08 13:19:00,
2013-02-08 07:22:00,46.8,45.1,28.88,WSW,246,0.0,0.0,94,0.00,,---,0.00,VWS V14.01,2013-02-08 13:22:00,
2013-02-08 07:23:00,46.8,45.1,28.88,WSW,242,0.0,0.0,94,0.00,,---,0.00,VWS V14.01,2013-02-08 13:23:00,
2013-02-08 07:24:00,46.8,45.1,28.88,WSW,242,0.0,0.0,94,0.00,,---,0.00,VWS V14.01,2013-02-08 13:24:00,
2013-02-08 07:25:00,46.8,45.1,28.88,WSW,242,0.0,0.0,94,0.00,,---,0.00,VWS V14.01,2013-02-08 13:25:00,
2013-02-08 07:27:00,46.8,45.1,28.88,SSE,168,4.9,4.9,94,0.00,,---,0.00,VWS V14.01,2013-02-08 13:27:00,
2013-02-08 07:29:00,46.8,45.1,28.88,SSW,204,2.7,4.9,94,0.00,,---,0.00,VWS V14.01,2013-02-08 13:29:00,
2013-02-08 07:30:00,46.8,45.1,28.88,South,183,2.2,2.2,94,0.00,,---,0.00,VWS V14.01,2013-02-08 13:30:00,
2013-02-08 07:32:00,46.8,45.1,28.88,South,173,3.6,3.6,94,0.00,,---,0.00,VWS V14.01,2013-02-08 13:32:00,
2013-02-08 07:34:00,46.8,45.1,28.88,SSE,147,5.4,5.4,94,0.00,,---,0.00,VWS V14.01,2013-02-08 13:34:00,
2013-02-08 07:35:00,46.8,45.1,28.88,SSE,147,5.4,5.4,94,0.00,,---,0.00,VWS V14.01,2013-02-08 13:35:00,
2013-02-08 07:37:00,46.8,45.1,28.88,SSW,203,2.7,3.1,94,0.00,,---,0.00,VWS V14.01,2013-02-08 13:37:00,
2013-02-08 07:39:00,46.8,45.1,28.88,South,170,5.4,5.4,94,0.00,,---,0.00,VWS V14.01,2013-02-08 13:39:00,
2013-02-08 07:40:00,46.8,45.1,28.88,South,170,5.4,5.4,94,0.00,,---,0.00,VWS V14.01,2013-02-08 13:40:00,
2013-02-08 07:42:00,46.8,45.1,28.88,South,178,3.1,3.1,94,0.00,,---,0.00,VWS V14.01,2013-02-08 13:42:00,
2013-02-08 07:44:00,46.8,45.1,28.88,South,173,3.1,3.1,94,0.08,,---,0.08,VWS V14.01,2013-02-08 13:44:00,
2013-02-08 07:45:00,46.8,45.1,28.88,South,175,4.0,4.0,94,0.08,,---,0.08,VWS V14.01,2013-02-08 13:45:00,
2013-02-08 07:47:00,46.8,44.8,28.88,South,175,2.7,2.7,93,0.08,,---,0.08,VWS V14.01,2013-02-08 13:47:00,
2013-02-08 07:49:00,46.8,44.8,28.88,South,172,2.2,2.7,93,0.08,,---,0.08,VWS V14.01,2013-02-08 13:49:00,
2013-02-08 07:50:00,46.8,44.8,28.88,South,172,2.2,2.2,93,0.08,,---,0.08,VWS V14.01,2013-02-08 13:50:00,
2013-02-08 07:52:00,46.8,44.8,28.88,South,172,3.1,3.1,93,0.08,,---,0.08,VWS V14.01,2013-02-08 13:52:00,
2013-02-08 07:54:00,46.8,44.8,28.88,South,172,3.1,3.1,93,0.08,,---,0.08,VWS V14.01,2013-02-08 13:54:00,
2013-02-08 07:55:00,46.8,44.8,28.88,SSW,199,4.0,4.0,93,0.08,,---,0.08,VWS V14.01,2013-02-08 13:55:00,
2013-02-08 07:57:00,46.8,44.8,28.88,SSE,166,4.0,4.0,93,0.08,,---,0.08,VWS V14.01,2013-02-08 13:57:00,
2013-02-08 07:59:00,46.8,44.8,28.88,South,176,3.6,4.0,93,0.08,,---,0.08,VWS V14.01,2013-02-08 13:59:00,
2013-02-08 08:00:00,46.8,44.8,28.88,SSE,163,4.9,4.9,93,0.08,,---,0.08,VWS V14.01,2013-02-08 14:00:00,
2013-02-08 08:02:00,46.8,44.8,28.88,SSW,200,3.6,3.6,93,0.08,,---,0.08,VWS V14.01,2013-02-08 14:02:00,
2013-02-08 08:04:00,46.8,44.8,28.88,South,170,3.1,3.6,93,0.08,,---,0.08,VWS V14.01,2013-02-08 14:04:00,
2013-02-08 08:05:00,46.8,44.8,28.88,South,170,3.1,3.1,93,0.08,,---,0.08,VWS V14.01,2013-02-08 14:05:00,
2013-02-08 08:07:00,46.8,44.8,28.88,SSE,165,3.6,3.6,93,0.08,,---,0.08,VWS V14.01,2013-02-08 14:07:00,
2013-02-08 08:09:00,46.8,44.8,28.88,SSE,159,2.2,2.2,93,0.08,,---,0.08,VWS V14.01,2013-02-08 14:09:00,
2013-02-08 08:10:00,46.9,45.0,28.88,SSE,159,2.2,2.2,93,0.08,,---,0.08,VWS V14.01,2013-02-08 14:10:00,
2013-02-08 08:11:00,46.9,45.0,28.88,SSE,159,2.2,2.2,93,0.08,,---,0.08,VWS V14.01,2013-02-08 14:11:00,
2013-02-08 08:12:00,46.9,45.0,28.88,South,173,3.6,3.6,93,0.08,,---,0.08,VWS V14.01,2013-02-08 14:12:00,
2013-02-08 08:14:00,46.9,45.0,28.88,South,184,3.1,3.1,93,0.08,,---,0.08,VWS V14.01,2013-02-08 14:14:00,
2013-02-08 08:15:00,46.9,45.0,28.88,South,184,3.1,3.1,93,0.08,,---,0.08,VWS V14.01,2013-02-08 14:15:00,
2013-02-08 08:16:00,46.9,45.3,28.88,South,184,3.1,3.1,94,0.08,,---,0.08,VWS V14.01,2013-02-08 14:16:00,
2013-02-08 08:17:00,46.9,45.3,28.88,South,184,3.1,3.1,94,0.08,,---,0.08,VWS V14.01,2013-02-08 14:17:00,
2013-02-08 08:19:00,46.9,45.3,28.88,SSW,193,2.7,3.1,94,0.08,,---,0.08,VWS V14.01,2013-02-08 14:19:00,
2013-02-08 08:20:00,46.9,45.3,28.88,SSW,193,2.7,2.7,94,0.08,,---,0.08,VWS V14.01,2013-02-08 14:20:00,
2013-02-08 08:21:00,46.9,45.3,28.88,SSW,193,2.7,2.7,94,0.08,,---,0.08,VWS V14.01,2013-02-08 14:21:00,
2013-02-08 08:22:00,46.9,45.3,28.88,SSE,151,4.0,4.0,94,0.08,,---,0.08,VWS V14.01,2013-02-08 14:22:00,
2013-02-08 08:24:00,46.9,45.3,28.88,SSE,151,4.0,4.0,94,0.08,,---,0.08,VWS V14.01,2013-02-08 14:24:00,
2013-02-08 08:25:00,46.9,45.3,28.88,SSE,151,4.0,4.0,94,0.08,,---,0.08,VWS V14.01,2013-02-08 14:25:00,
2013-02-08 08:26:00,46.9,45.3,28.88,SSW,192,0.0,4.0,94,0.08,,---,0.08,VWS V14.01,2013-02-08 14:26:00,
2013-02-08 08:27:00,46.9,45.3,28.88,South,173,2.7,2.7,94,0.08,,---,0.08,VWS V14.01,2013-02-08 14:27:00,
2013-02-08 08:30:00,46.9,45.3,28.88,SSE,167,2.7,2.7,94,0.08,,---,0.08,VWS V14.01,2013-02-08 14:30:00,
2013-02-08 08:31:00,46.9,45.3,28.88,SSE,167,2.7,2.7,94,0.08,,---,0.08,VWS V14.01,2013-02-08 14:31:00,
2013-02-08 08:33:00,46.9,45.3,28.88,South,183,2.7,2.7,94,0.08,,---,0.08,VWS V14.01,2013-02-08 14:33:00,
2013-02-08 08:35:00,47.1,45.5,28.88,South,180,0.0,3.1,94,0.08,,---,0.08,VWS V14.01,2013-02-08 14:35:00,
2013-02-08 08:36:00,47.1,45.5,28.88,South,180,0.0,0.0,94,0.08,,---,0.08,VWS V14.01,2013-02-08 14:36:00,
2013-02-08 08:38:00,47.1,45.5,28.88,South,180,0.0,0.0,94,0.08,,---,0.08,VWS V14.01,2013-02-08 14:38:00,
2013-02-08 08:40:00,47.1,45.5,28.88,South,180,0.0,0.0,94,0.08,,---,0.08,VWS V14.01,2013-02-08 14:40:00,
2013-02-08 08:41:00,47.1,45.5,28.88,South,180,0.0,0.0,94,0.08,,---,0.08,VWS V14.01,2013-02-08 14:41:00,
2013-02-08 08:43:00,47.1,45.5,28.88,South,180,0.0,0.0,94,0.08,,---,0.08,VWS V14.01,2013-02-08 14:43:00,
2013-02-08 08:45:00,47.1,45.5,28.88,South,180,0.0,0.0,94,0.00,,---,0.08,VWS V14.01,2013-02-08 14:45:00,
2013-02-08 08:46:00,47.1,45.5,28.88,South,180,0.0,0.0,94,0.00,,---,0.08,VWS V14.01,2013-02-08 14:46:00,
2013-02-08 08:48:00,47.1,45.5,28.88,South,180,0.0,0.0,94,0.00,,---,0.08,VWS V14.01,2013-02-08 14:48:00,
2013-02-08 08:50:00,47.3,45.7,28.88,South,180,0.0,0.0,94,0.00,,---,0.08,VWS V14.01,2013-02-08 14:50:00,
2013-02-08 08:51:00,47.3,45.7,28.88,South,180,0.0,0.0,94,0.00,,---,0.08,VWS V14.01,2013-02-08 14:51:00,
2013-02-08 08:53:00,47.3,45.7,28.88,South,180,0.0,0.0,94,0.00,,---,0.08,VWS V14.01,2013-02-08 14:53:00,
2013-02-08 08:55:00,47.3,45.7,28.91,South,180,2.7,2.7,94,0.00,,---,0.08,VWS V14.01,2013-02-08 14:55:00,
2013-02-08 08:56:00,47.3,45.7,28.91,South,180,2.7,2.7,94,0.00,,---,0.08,VWS V14.01,2013-02-08 14:56:00,
2013-02-08 08:57:00,47.3,45.7,28.91,South,180,2.7,2.7,94,0.00,,---,0.08,VWS V14.01,2013-02-08 14:57:00,
2013-02-08 08:58:00,47.3,45.7,28.91,South,180,2.7,2.7,94,0.00,,---,0.08,VWS V14.01,2013-02-08 14:58:00,
2013-02-08 09:00:00,47.3,45.7,28.91,South,180,2.7,2.7,94,0.00,,---,0.08,VWS V14.01,2013-02-08 15:00:00,
2013-02-08 09:01:00,47.3,45.7,28.91,South,180,2.7,2.7,94,0.00,,---,0.08,VWS V14.01,2013-02-08 15:01:00,
2013-02-08 09:02:00,47.3,45.7,28.91,NNW,343,2.7,4.0,94,0.00,,---,0.08,VWS V14.01,2013-02-08 15:02:00,
2013-02-08 09:04:00,47.3,45.7,28.91,NW,322,2.7,2.7,94,0.00,,---,0.08,VWS V14.01,2013-02-08 15:04:00,
2013-02-08 09:06:00,47.3,45.7,28.91,NW,317,2.7,2.7,94,0.00,,---,0.08,VWS V14.01,2013-02-08 15:06:00,
2013-02-08 09:07:00,47.3,45.7,28.91,NW,317,2.7,2.7,94,0.00,,---,0.08,VWS V14.01,2013-02-08 15:07:00,
2013-02-08 09:09:00,47.3,45.7,28.91,NW,318,0.0,0.0,94,0.00,,---,0.08,VWS V14.01,2013-02-08 15:09:00,
2013-02-08 09:11:00,47.3,45.7,28.91,NW,318,0.0,0.0,94,0.00,,---,0.08,VWS V14.01,2013-02-08 15:11:00,
2013-02-08 09:12:00,47.3,45.7,28.91,NW,318,0.0,0.0,94,0.00,,---,0.08,VWS V14.01,2013-02-08 15:12:00,
2013-02-08 09:14:00,47.3,45.7,28.91,NW,318,0.0,0.0,94,0.00,,---,0.08,VWS V14.01,2013-02-08 15:14:00,
2013-02-08 09:16:00,47.3,45.7,28.91,NW,318,0.0,0.0,94,0.00,,---,0.08,VWS V14.01,2013-02-08 15:16:00,
2013-02-08 09:17:00,47.3,45.7,28.91,NW,318,0.0,0.0,94,0.00,,---,0.08,VWS V14.01,2013-02-08 15:17:00,
2013-02-08 09:19:00,47.3,45.7,28.91,NW,318,0.0,0.0,94,0.00,,---,0.08,VWS V14.01,2013-02-08 15:19:00,
2013-02-08 09:21:00,47.3,45.7,28.91,NW,318,0.0,0.0,94,0.00,,---,0.08,VWS V14.01,2013-02-08 15:21:00,
2013-02-08 09:22:00,47.3,45.7,28.91,NW,318,0.0,0.0,94,0.00,,---,0.08,VWS V14.01,2013-02-08 15:22:00,
2013-02-08 09:24:00,47.3,45.7,28.91,NW,318,2.7,2.7,94,0.00,,---,0.08,VWS V14.01,2013-02-08 15:24:00,
2013-02-08 09:26:00,47.3,45.7,28.91,NW,318,2.7,2.7,94,0.00,,---,0.08,VWS V14.01,2013-02-08 15:26:00,
2013-02-08 09:27:00,47.3,45.7,28.91,NW,318,2.7,2.7,94,0.00,,---,0.08,VWS V14.01,2013-02-08 15:27:00,
2013-02-08 09:29:00,47.3,45.7,28.91,NW,318,0.0,0.0,94,0.00,,---,0.08,VWS V14.01,2013-02-08 15:29:00,
2013-02-08 09:31:00,47.5,45.8,28.91,NW,318,0.0,0.0,94,0.00,,---,0.08,VWS V14.01,2013-02-08 15:31:00,
2013-02-08 09:32:00,47.5,45.8,28.91,NW,318,0.0,0.0,94,0.00,,---,0.08,VWS V14.01,2013-02-08 15:32:00,
2013-02-08 09:34:00,47.5,45.8,28.91,NW,318,0.0,0.0,94,0.00,,---,0.08,VWS V14.01,2013-02-08 15:34:00,
2013-02-08 09:36:00,47.5,45.8,28.91,NW,318,0.0,0.0,94,0.00,,---,0.08,VWS V14.01,2013-02-08 15:36:00,
2013-02-08 09:37:00,47.5,45.8,28.91,NW,318,0.0,0.0,94,0.00,,---,0.08,VWS V14.01,2013-02-08 15:37:00,
2013-02-08 09:39:00,47.5,45.8,28.91,NW,318,0.0,0.0,94,0.00,,---,0.08,VWS V14.01,2013-02-08 15:39:00,
2013-02-08 09:41:00,47.5,45.8,28.91,NW,318,0.0,0.0,94,0.00,,---,0.08,VWS V14.01,2013-02-08 15:41:00,
2013-02-08 09:42:00,47.7,46.0,28.91,NW,318,0.0,0.0,94,0.00,,---,0.08,VWS V14.01,2013-02-08 15:42:00,
2013-02-08 09:44:00,47.7,46.0,28.91,NW,318,0.0,0.0,94,0.00,,---,0.08,VWS V14.01,2013-02-08 15:44:00,
2013-02-08 09:46:00,47.7,46.0,28.91,NW,318,0.0,0.0,94,0.00,,---,0.08,VWS V14.01,2013-02-08 15:46:00,
2013-02-08 09:47:00,47.7,46.0,28.91,NW,318,0.0,0.0,94,0.00,,---,0.08,VWS V14.01,2013-02-08 15:47:00,
2013-02-08 09:49:00,47.7,46.0,28.91,NW,318,0.0,0.0,94,0.00,,---,0.08,VWS V14.01,2013-02-08 15:49:00,
2013-02-08 09:51:00,47.7,46.0,28.91,NW,318,2.2,2.2,94,0.00,,---,0.08,VWS V14.01,2013-02-08 15:51:00,
2013-02-08 09:52:00,47.7,46.0,28.91,NW,318,2.2,2.2,94,0.00,,---,0.08,VWS V14.01,2013-02-08 15:52:00,
2013-02-08 09:53:00,47.7,46.0,28.91,NW,318,2.2,2.2,94,0.00,,---,0.08,VWS V14.01,2013-02-08 15:53:00,
2013-02-08 09:54:00,47.7,46.0,28.91,NW,318,2.2,2.2,94,0.00,,---,0.08,VWS V14.01,2013-02-08 15:54:00,
2013-02-08 09:56:00,47.8,46.2,28.91,NW,318,0.0,0.0,94,0.00,,---,0.08,VWS V14.01,2013-02-08 15:56:00,
2013-02-08 09:58:00,47.8,46.2,28.91,NW,318,0.0,0.0,94,0.00,,---,0.08,VWS V14.01,2013-02-08 15:58:00,
2013-02-08 09:59:00,47.8,46.2,28.91,NW,318,0.0,0.0,94,0.00,,---,0.08,VWS V14.01,2013-02-08 15:59:00,
2013-02-08 10:01:00,47.8,46.2,28.91,NW,318,0.0,0.0,94,0.00,,---,0.08,VWS V14.01,2013-02-08 16:01:00,
2013-02-08 10:03:00,47.8,46.2,28.91,NW,318,0.0,0.0,94,0.00,,---,0.08,VWS V14.01,2013-02-08 16:03:00,
2013-02-08 10:04:00,47.8,46.2,28.91,NW,318,0.0,0.0,94,0.00,,---,0.08,VWS V14.01,2013-02-08 16:04:00,
2013-02-08 10:07:00,47.8,46.2,28.91,NW,318,0.0,0.0,94,0.00,,---,0.08,VWS V14.01,2013-02-08 16:07:00,
2013-02-08 10:08:00,48.0,46.4,28.91,NW,318,0.0,0.0,94,0.00,,---,0.08,VWS V14.01,2013-02-08 16:08:00,
2013-02-08 10:09:00,48.0,46.4,28.91,NW,318,0.0,0.0,94,0.00,,---,0.08,VWS V14.01,2013-02-08 16:09:00,
2013-02-08 10:12:00,48.0,46.4,28.91,NW,318,2.7,2.7,94,0.00,,---,0.08,VWS V14.01,2013-02-08 16:12:00,
2013-02-08 10:13:00,48.0,46.4,28.91,NW,318,0.0,2.7,94,0.00,,---,0.08,VWS V14.01,2013-02-08 16:13:00,
2013-02-08 10:14:00,48.0,46.4,28.91,NW,318,0.0,0.0,94,0.00,,---,0.08,VWS V14.01,2013-02-08 16:14:00,
2013-02-08 10:17:00,48.0,46.4,28.91,NW,318,0.0,0.0,94,0.00,,---,0.08,VWS V14.01,2013-02-08 16:17:00,
2013-02-08 10:18:00,48.0,46.4,28.91,NW,318,0.0,0.0,94,0.00,,---,0.08,VWS V14.01,2013-02-08 16:18:00,
2013-02-08 10:19:00,48.0,46.4,28.91,NW,318,0.0,0.0,94,0.00,,---,0.08,VWS V14.01,2013-02-08 16:19:00,
2013-02-08 10:22:00,48.0,46.4,28.91,NW,318,0.0,0.0,94,0.00,,---,0.08,VWS V14.01,2013-02-08 16:22:00,
2013-02-08 10:23:00,48.0,46.4,28.91,NW,318,0.0,0.0,94,0.00,,---,0.08,VWS V14.01,2013-02-08 16:23:00,
2013-02-08 10:24:00,48.0,46.4,28.94,NW,318,0.0,0.0,94,0.00,,---,0.08,VWS V14.01,2013-02-08 16:24:00,
2013-02-08 10:27:00,48.6,46.6,28.94,NW,318,3.1,3.1,93,0.00,,---,0.08,VWS V14.01,2013-02-08 16:27:00,
2013-02-08 10:28:00,48.6,46.6,28.94,NW,318,3.1,3.1,93,0.00,,---,0.08,VWS V14.01,2013-02-08 16:28:00,
2013-02-08 10:29:00,48.6,46.6,28.94,NW,318,3.1,3.1,93,0.00,,---,0.08,VWS V14.01,2013-02-08 16:29:00,
2013-02-08 10:32:00,48.7,46.8,28.94,NW,326,3.1,3.1,93,0.00,,---,0.08,VWS V14.01,2013-02-08 16:32:00,
2013-02-08 10:34:00,48.7,46.8,28.94,NW,326,0.0,3.1,93,0.00,,---,0.08,VWS V14.01,2013-02-08 16:34:00,
2013-02-08 10:37:00,48.7,46.8,28.94,NW,326,2.7,2.7,93,0.00,,---,0.08,VWS V14.01,2013-02-08 16:37:00,
2013-02-08 10:39:00,48.7,46.8,28.94,NW,326,0.0,2.7,93,0.00,,---,0.08,VWS V14.01,2013-02-08 16:39:00,
2013-02-08 10:42:00,48.7,46.8,28.94,NW,326,0.0,0.0,93,0.00,,---,0.08,VWS V14.01,2013-02-08 16:42:00,
2013-02-08 10:44:00,49.1,47.5,28.94,NW,326,0.0,0.0,94,0.00,,---,0.08,VWS V14.01,2013-02-08 16:44:00,
2013-02-08 10:45:00,49.1,47.5,28.94,NW,317,2.7,2.7,94,0.00,,---,0.08,VWS V14.01,2013-02-08 16:45:00,
2013-02-08 10:47:00,49.1,47.5,28.94,NNW,332,2.7,4.0,94,0.00,,---,0.08,VWS V14.01,2013-02-08 16:47:00,
2013-02-08 10:49:00,49.1,47.5,28.94,NW,316,4.9,4.9,94,0.00,,---,0.08,VWS V14.01,2013-02-08 16:49:00,
2013-02-08 10:50:00,49.1,47.5,28.94,NW,316,4.9,4.9,94,0.00,,---,0.08,VWS V14.01,2013-02-08 16:50:00,
2013-02-08 10:52:00,49.1,47.5,28.91,NW,317,3.6,4.9,94,0.00,,---,0.08,VWS V14.01,2013-02-08 16:52:00,
2013-02-08 10:54:00,49.1,47.2,28.91,NW,317,3.1,3.6,93,0.00,,---,0.08,VWS V14.01,2013-02-08 16:54:00,
2013-02-08 10:55:00,49.1,47.2,28.91,NW,317,3.1,3.1,93,0.00,,---,0.08,VWS V14.01,2013-02-08 16:55:00,
2013-02-08 10:57:00,49.1,47.2,28.91,NW,317,3.1,3.1,93,0.00,,---,0.08,VWS V14.01,2013-02-08 16:57:00,
2013-02-08 10:59:00,49.1,47.2,28.91,NW,317,3.1,3.1,93,0.00,,---,0.08,VWS V14.01,2013-02-08 16:59:00,
2013-02-08 11:00:00,49.3,47.3,28.91,NW,317,3.1,3.1,93,0.00,,---,0.08,VWS V14.01,2013-02-08 17:00:00,
2013-02-08 11:03:00,49.1,47.2,28.91,WNW,301,0.0,6.3,93,0.00,,---,0.08,VWS V14.01,2013-02-08 17:03:00,
2013-02-08 11:04:00,49.1,47.2,28.91,WNW,301,0.0,0.0,93,0.00,,---,0.08,VWS V14.01,2013-02-08 17:04:00,
2013-02-08 11:05:00,49.1,47.2,28.91,West,265,5.4,5.4,93,0.00,,---,0.08,VWS V14.01,2013-02-08 17:05:00,
2013-02-08 11:08:00,49.1,47.2,28.91,NW,311,2.2,3.6,93,0.00,,---,0.08,VWS V14.01,2013-02-08 17:08:00,
2013-02-08 11:09:00,49.1,47.2,28.91,NW,311,2.2,2.2,93,0.00,,---,0.08,VWS V14.01,2013-02-08 17:09:00,
2013-02-08 11:10:00,49.1,47.2,28.91,NW,311,2.2,2.2,93,0.00,,---,0.08,VWS V14.01,2013-02-08 17:10:00,
2013-02-08 11:13:00,49.3,47.3,28.91,WSW,256,0.0,0.0,93,0.00,,---,0.08,VWS V14.01,2013-02-08 17:13:00,
2013-02-08 11:14:00,49.3,47.3,28.91,WNW,299,2.7,2.7,93,0.00,,---,0.08,VWS V14.01,2013-02-08 17:14:00,
2013-02-08 11:15:00,49.3,47.3,28.91,WNW,299,2.7,2.7,93,0.00,,---,0.08,VWS V14.01,2013-02-08 17:15:00,
2013-02-08 11:18:00,49.6,47.4,28.91,WNW,299,0.0,0.0,92,0.00,,---,0.08,VWS V14.01,2013-02-08 17:18:00,
2013-02-08 11:19:00,49.6,47.4,28.91,NNW,336,0.0,2.7,92,0.00,,---,0.08,VWS V14.01,2013-02-08 17:19:00,
2013-02-08 11:20:00,49.6,47.4,28.91,NNW,336,0.0,2.7,92,0.00,,---,0.08,VWS V14.01,2013-02-08 17:20:00,
2013-02-08 11:23:00,49.8,47.6,28.91,NNW,327,0.0,3.1,92,0.00,,---,0.08,VWS V14.01,2013-02-08 17:23:00,
2013-02-08 11:24:00,49.8,47.6,28.91,NNW,327,0.0,0.0,92,0.00,,---,0.08,VWS V14.01,2013-02-08 17:24:00,
2013-02-08 11:25:00,49.8,47.6,28.91,NNW,327,0.0,0.0,92,0.00,,---,0.08,VWS V14.01,2013-02-08 17:25:00,
2013-02-08 11:28:00,50.0,47.8,28.91,NW,319,3.6,3.6,92,0.00,,---,0.08,VWS V14.01,2013-02-08 17:28:00,
2013-02-08 11:29:00,50.0,47.8,28.91,NW,319,3.6,3.6,92,0.00,,---,0.08,VWS V14.01,2013-02-08 17:29:00,
2013-02-08 11:30:00,50.0,47.8,28.91,NW,319,3.6,3.6,92,0.00,,---,0.08,VWS V14.01,2013-02-08 17:30:00,
2013-02-08 11:31:00,50.0,47.8,28.91,NW,319,2.7,3.6,92,0.00,,---,0.08,VWS V14.01,2013-02-08 17:31:00,
2013-02-08 11:34:00,50.0,47.8,28.91,NNW,334,2.7,2.7,92,0.00,,---,0.08,VWS V14.01,2013-02-08 17:34:00,
2013-02-08 11:35:00,50.0,47.8,28.91,NNW,334,2.7,2.7,92,0.00,,---,0.08,VWS V14.01,2013-02-08 17:35:00,
2013-02-08 11:36:00,50.0,47.8,28.91,NNW,343,5.8,5.8,92,0.00,,---,0.08,VWS V14.01,2013-02-08 17:36:00,
2013-02-08 11:39:00,50.0,47.8,28.91,NNW,343,5.8,5.8,92,0.00,,---,0.08,VWS V14.01,2013-02-08 17:39:00,
2013-02-08 11:40:00,50.0,47.8,28.91,NW,310,5.8,5.8,92,0.00,,---,0.08,VWS V14.01,2013-02-08 17:40:00,
2013-02-08 11:41:00,50.0,47.5,28.91,NNW,343,3.1,5.8,91,0.00,,---,0.08,VWS V14.01,2013-02-08 17:41:00,
2013-02-08 11:44:00,50.0,47.2,28.91,NNW,331,2.2,2.2,90,0.00,,---,0.08,VWS V14.01,2013-02-08 17:44:00,
2013-02-08 11:45:00,50.0,47.2,28.91,NNW,331,2.2,2.2,90,0.00,,---,0.08,VWS V14.01,2013-02-08 17:45:00,
2013-02-08 11:46:00,50.0,47.2,28.91,North,353,3.1,3.1,90,0.00,,---,0.08,VWS V14.01,2013-02-08 17:46:00,
2013-02-08 11:49:00,50.0,47.2,28.91,North,353,3.1,3.1,90,0.00,,---,0.08,VWS V14.01,2013-02-08 17:49:00,
2013-02-08 11:50:00,50.0,47.2,28.91,North,349,3.6,3.6,90,0.00,,---,0.08,VWS V14.01,2013-02-08 17:50:00,
2013-02-08 11:51:00,50.0,47.2,28.91,North,353,3.6,3.6,90,0.00,,---,0.08,VWS V14.01,2013-02-08 17:51:00,
2013-02-08 11:52:00,50.2,47.4,28.91,North,353,3.6,3.6,90,0.00,,---,0.08,VWS V14.01,2013-02-08 17:52:00,
2013-02-08 11:54:00,50.2,47.4,28.91,North,353,5.4,5.4,90,0.00,,---,0.08,VWS V14.01,2013-02-08 17:54:00,
2013-02-08 11:55:00,50.2,47.4,28.91,NNW,341,4.9,5.4,90,0.00,,---,0.08,VWS V14.01,2013-02-08 17:55:00,
2013-02-08 11:56:00,50.2,47.4,28.91,North,4,4.0,4.9,90,0.00,,---,0.08,VWS V14.01,2013-02-08 17:56:00,
2013-02-08 11:57:00,50.2,47.4,28.91,NNW,343,3.1,4.9,90,0.00,,---,0.08,VWS V14.01,2013-02-08 17:57:00,
2013-02-08 11:59:00,50.4,47.2,28.91,NNW,343,3.1,3.1,89,0.00,,---,0.08,VWS V14.01,2013-02-08 17:59:00,
2013-02-08 12:00:00,50.5,47.4,28.91,NNW,343,3.1,3.1,89,0.00,,---,0.08,VWS V14.01,2013-02-08 18:00:00,
2013-02-08 12:01:00,50.5,47.4,28.91,NNW,343,3.1,3.1,89,0.00,,---,0.08,VWS V14.01,2013-02-08 18:01:00,
2013-02-08 12:02:00,50.5,47.4,28.91,NNW,343,3.1,3.1,89,0.00,,---,0.08,VWS V14.01,2013-02-08 18:02:00,
2013-02-08 12:04:00,50.5,47.4,28.91,North,11,4.9,4.9,89,0.00,,---,0.08,VWS V14.01,2013-02-08 18:04:00,
2013-02-08 12:05:00,50.5,47.4,28.91,NNW,344,5.8,5.8,89,0.00,,---,0.08,VWS V14.01,2013-02-08 18:05:00,
2013-02-08 12:06:00,50.5,47.4,28.91,NNW,344,5.8,5.8,89,0.00,,---,0.08,VWS V14.01,2013-02-08 18:06:00,
2013-02-08 12:07:00,50.5,47.4,28.91,NNW,344,5.8,5.8,89,0.00,,---,0.08,VWS V14.01,2013-02-08 18:07:00,
2013-02-08 12:09:00,50.7,47.3,28.91,North,353,4.0,4.0,88,0.00,,---,0.08,VWS V14.01,2013-02-08 18:09:00,
2013-02-08 12:10:00,50.7,47.3,28.91,North,353,4.0,4.0,88,0.00,,---,0.08,VWS V14.01,2013-02-08 18:10:00,
2013-02-08 12:11:00,50.7,47.3,28.91,North,353,3.6,3.6,88,0.00,,---,0.08,VWS V14.01,2013-02-08 18:11:00,
2013-02-08 12:12:00,50.7,47.3,28.91,North,357,6.3,6.3,88,0.00,,---,0.08,VWS V14.01,2013-02-08 18:12:00,
2013-02-08 12:14:00,50.7,47.3,28.91,North,357,6.3,6.3,88,0.00,,---,0.08,VWS V14.01,2013-02-08 18:14:00,
2013-02-08 12:15:00,50.7,47.3,28.91,North,357,6.3,6.3,88,0.00,,---,0.08,VWS V14.01,2013-02-08 18:15:00,
2013-02-08 12:16:00,50.7,47.3,28.91,North,357,6.3,6.3,88,0.00,,---,0.08,VWS V14.01,2013-02-08 18:16:00,
2013-02-08 12:18:00,50.9,45.9,28.91,North,10,3.6,6.3,83,0.00,,---,0.08,VWS V14.01,2013-02-08 18:18:00,
2013-02-08 12:20:00,51.1,46.1,28.91,North,10,3.6,3.6,83,0.00,,---,0.08,VWS V14.01,2013-02-08 18:20:00,
2013-02-08 12:21:00,51.1,46.1,28.91,NNW,332,4.5,4.5,83,0.00,,---,0.08,VWS V14.01,2013-02-08 18:21:00,
2013-02-08 12:23:00,51.1,46.1,28.91,NW,309,7.6,7.6,83,0.00,,---,0.08,VWS V14.01,2013-02-08 18:23:00,
2013-02-08 12:25:00,51.1,46.1,28.91,NNW,343,6.3,6.3,83,0.00,,---,0.08,VWS V14.01,2013-02-08 18:25:00,
2013-02-08 12:27:00,52.2,45.2,28.91,NNW,343,6.3,6.3,77,0.00,,---,0.08,VWS V14.01,2013-02-08 18:27:00,
2013-02-08 12:28:00,52.9,45.2,28.91,NNW,343,6.3,6.3,75,0.00,,---,0.08,VWS V14.01,2013-02-08 18:28:00,
2013-02-08 12:30:00,53.2,45.5,28.91,NNW,343,6.3,6.3,75,0.00,,---,0.08,VWS V14.01,2013-02-08 18:30:00,
2013-02-08 12:32:00,53.2,45.5,28.91,North,357,5.8,5.8,75,0.00,,---,0.08,VWS V14.01,2013-02-08 18:32:00,
2013-02-08 12:33:00,53.2,45.5,28.91,North,353,5.8,5.8,75,0.00,,---,0.08,VWS V14.01,2013-02-08 18:33:00,
2013-02-08 12:35:00,53.8,39.4,28.91,NNW,342,5.4,5.4,58,0.00,,---,0.08,VWS V14.01,2013-02-08 18:35:00,
2013-02-08 12:36:00,53.8,39.4,28.91,NNW,342,5.4,5.4,58,0.00,,---,0.08,VWS V14.01,2013-02-08 18:36:00,
2013-02-08 12:38:00,53.8,39.4,28.91,NNW,342,5.4,5.4,58,0.00,,---,0.08,VWS V14.01,2013-02-08 18:38:00,
2013-02-08 12:41:00,53.8,39.4,28.91,North,353,3.6,3.6,58,0.00,,---,0.08,VWS V14.01,2013-02-08 18:41:00,
2013-02-08 12:42:00,53.8,39.4,28.91,NW,320,5.8,5.8,58,0.00,,---,0.08,VWS V14.01,2013-02-08 18:42:00,
2013-02-08 12:43:00,53.8,39.4,28.91,NW,320,5.8,5.8,58,0.00,,---,0.08,VWS V14.01,2013-02-08 18:43:00,
2013-02-08 12:46:00,53.4,36.7,28.91,NNW,334,10.5,10.5,53,0.00,,---,0.08,VWS V14.01,2013-02-08 18:46:00,
2013-02-08 12:47:00,53.4,36.7,28.91,North,6,5.8,5.8,53,0.00,,---,0.08,VWS V14.01,2013-02-08 18:47:00,
2013-02-08 12:48:00,53.4,36.7,28.91,North,357,4.0,5.4,53,0.00,,---,0.08,VWS V14.01,2013-02-08 18:48:00,
2013-02-08 12:49:00,53.1,34.4,28.91,North,357,4.0,5.4,49,0.00,,---,0.08,VWS V14.01,2013-02-08 18:49:00,
2013-02-08 12:51:00,53.1,34.4,28.91,North,357,4.0,4.0,49,0.00,,---,0.08,VWS V14.01,2013-02-08 18:51:00,
2013-02-08 12:52:00,53.1,34.4,28.91,NNW,344,6.3,6.3,49,0.00,,---,0.08,VWS V14.01,2013-02-08 18:52:00,
2013-02-08 12:54:00,53.1,34.4,28.91,North,3,6.3,6.3,49,0.00,,---,0.08,VWS V14.01,2013-02-08 18:54:00,
2013-02-08 12:55:00,53.1,34.4,28.91,North,3,6.3,6.3,49,0.00,,---,0.08,VWS V14.01,2013-02-08 18:55:00,
2013-02-08 12:56:00,53.1,34.4,28.91,NNW,329,7.6,7.6,49,0.00,,---,0.08,VWS V14.01,2013-02-08 18:56:00,
2013-02-08 12:57:00,53.1,34.4,28.91,North,353,6.3,6.3,49,0.00,,---,0.08,VWS V14.01,2013-02-08 18:57:00,
2013-02-08 12:59:00,53.1,34.4,28.91,NNW,335,5.4,5.4,49,0.00,,---,0.08,VWS V14.01,2013-02-08 18:59:00,
2013-02-08 13:00:00,53.1,34.4,28.91,NNW,338,5.4,5.4,49,0.00,,---,0.08,VWS V14.01,2013-02-08 19:00:00,
2013-02-08 13:01:00,52.3,33.2,28.91,NNW,329,5.4,5.4,48,0.00,,---,0.08,VWS V14.01,2013-02-08 19:01:00,
2013-02-08 13:02:00,52.3,33.2,28.91,NNW,329,5.4,5.4,48,0.00,,---,0.08,VWS V14.01,2013-02-08 19:02:00,
2013-02-08 13:04:00,52.5,32.9,28.91,NNW,329,5.4,5.4,47,0.00,,---,0.08,VWS V14.01,2013-02-08 19:04:00,
2013-02-08 13:05:00,52.5,32.9,28.91,North,353,4.9,4.9,47,0.00,,---,0.08,VWS V14.01,2013-02-08 19:05:00,
2013-02-08 13:06:00,52.5,32.9,28.91,North,353,4.9,4.9,47,0.00,,---,0.08,VWS V14.01,2013-02-08 19:06:00,
2013-02-08 13:07:00,52.5,32.9,28.91,NW,322,8.1,8.1,47,0.00,,---,0.08,VWS V14.01,2013-02-08 19:07:00,
2013-02-08 13:09:00,53.4,34.2,28.91,NW,322,8.1,8.1,48,0.00,,---,0.08,VWS V14.01,2013-02-08 19:09:00,
2013-02-08 13:10:00,53.4,34.2,28.91,NW,322,8.1,8.1,48,0.00,,---,0.08,VWS V14.01,2013-02-08 19:10:00,
2013-02-08 13:11:00,54.0,33.7,28.91,NW,322,8.1,8.1,46,0.00,,---,0.08,VWS V14.01,2013-02-08 19:11:00,
2013-02-08 13:13:00,53.8,33.0,28.91,WSW,253,5.4,8.1,45,0.00,,---,0.08,VWS V14.01,2013-02-08 19:13:00,
2013-02-08 13:14:00,54.1,32.2,28.91,North,357,5.8,5.8,43,0.00,,---,0.08,VWS V14.01,2013-02-08 19:14:00,
2013-02-08 13:16:00,54.1,32.2,28.91,North,5,7.6,7.6,43,0.00,,---,0.08,VWS V14.01,2013-02-08 19:16:00,
2013-02-08 13:18:00,54.1,32.2,28.91,North,5,7.6,7.6,43,0.00,,---,0.08,VWS V14.01,2013-02-08 19:18:00,
2013-02-08 13:19:00,54.1,32.2,28.91,NNW,337,3.6,3.6,43,0.00,,---,0.08,VWS V14.01,2013-02-08 19:19:00,
2013-02-08 13:21:00,54.1,32.2,28.91,North,7,5.8,5.8,43,0.00,,---,0.08,VWS V14.01,2013-02-08 19:21:00,
2013-02-08 13:23:00,54.1,32.2,28.91,NW,322,6.3,6.3,43,0.00,,---,0.08,VWS V14.01,2013-02-08 19:23:00,
2013-02-08 13:24:00,54.1,32.2,28.91,NNW,340,5.4,6.3,43,0.00,,---,0.08,VWS V14.01,2013-02-08 19:24:00,
2013-02-08 13:26:00,55.2,31.3,28.91,NNW,340,5.4,5.4,40,0.00,,---,0.08,VWS V14.01,2013-02-08 19:26:00,
2013-02-08 13:28:00,55.2,31.3,28.91,NW,325,5.8,8.7,40,0.00,,---,0.08,VWS V14.01,2013-02-08 19:28:00,
2013-02-08 13:30:00,55.2,31.3,28.91,NNW,332,7.6,7.6,40,0.00,,---,0.08,VWS V14.01,2013-02-08 19:30:00,
2013-02-08 13:31:00,55.2,31.3,28.91,NNW,332,7.6,7.6,40,0.00,,---,0.08,VWS V14.01,2013-02-08 19:31:00,
2013-02-08 13:32:00,55.2,31.3,28.91,NNW,345,8.3,8.3,40,0.00,,---,0.08,VWS V14.01,2013-02-08 19:32:00,
2013-02-08 13:33:00,55.2,31.3,28.91,NNW,345,8.3,8.3,40,0.00,,---,0.08,VWS V14.01,2013-02-08 19:33:00,
2013-02-08 13:35:00,55.2,31.3,28.91,North,357,6.3,11.9,40,0.00,,---,0.08,VWS V14.01,2013-02-08 19:35:00,
2013-02-08 13:36:00,55.2,31.3,28.91,North,357,6.3,6.3,40,0.00,,---,0.08,VWS V14.01,2013-02-08 19:36:00,
2013-02-08 13:37:00,55.2,28.1,28.91,North,357,6.3,6.3,35,0.00,,---,0.08,VWS V14.01,2013-02-08 19:37:00,
2013-02-08 13:38:00,55.2,28.1,28.91,NW,315,12.8,12.8,35,0.00,,---,0.00,VWS V14.01,2013-02-08 19:38:00,
2013-02-08 13:40:00,55.0,27.9,28.91,NW,315,12.8,12.8,35,0.00,,---,0.08,VWS V14.01,2013-02-08 19:40:00,
2013-02-08 13:42:00,55.0,27.9,28.91,NNW,344,5.8,7.6,35,0.00,,---,0.08,VWS V14.01,2013-02-08 19:42:00,
2013-02-08 13:43:00,55.0,27.9,28.91,NNW,344,5.8,5.8,35,0.00,,---,0.08,VWS V14.01,2013-02-08 19:43:00,
2013-02-08 13:45:00,55.0,27.9,28.91,NW,323,10.5,10.5,35,0.00,,---,0.08,VWS V14.01,2013-02-08 19:45:00,
2013-02-08 13:47:00,55.0,27.9,28.91,NW,323,10.5,10.5,35,0.00,,---,0.08,VWS V14.01,2013-02-08 19:47:00,
2013-02-08 13:48:00,55.0,27.9,28.91,NW,323,10.5,10.5,35,0.00,,---,0.08,VWS V14.01,2013-02-08 19:48:00,
2013-02-08 13:50:00,55.4,28.2,28.91,NNW,327,8.3,8.3,35,0.00,,---,0.08,VWS V14.01,2013-02-08 19:50:00,
2013-02-08 13:52:00,55.4,28.2,28.91,NNW,327,8.3,8.3,35,0.00,,---,0.08,VWS V14.01,2013-02-08 19:52:00,
2013-02-08 13:53:00,55.0,26.5,28.91,NNW,327,8.3,8.3,33,0.00,,---,0.08,VWS V14.01,2013-02-08 19:53:00,
2013-02-08 13:55:00,55.0,27.9,28.91,NW,318,4.0,5.8,35,0.00,,---,0.08,VWS V14.01,2013-02-08 19:55:00,
2013-02-08 13:57:00,55.0,27.9,28.91,NW,318,4.0,4.0,35,0.00,,---,0.08,VWS V14.01,2013-02-08 19:57:00,
2013-02-08 13:58:00,55.0,27.9,28.91,NE,42,3.6,4.0,35,0.00,,---,0.08,VWS V14.01,2013-02-08 19:58:00,
2013-02-08 14:01:00,55.0,27.9,28.91,NW,323,7.6,7.6,35,0.00,,---,0.08,VWS V14.01,2013-02-08 20:01:00,
2013-02-08 14:02:00,55.2,28.8,28.91,North,9,9.6,9.6,36,0.00,,---,0.08,VWS V14.01,2013-02-08 20:02:00,
2013-02-08 14:03:00,55.2,28.1,28.91,NNW,334,4.0,9.6,35,0.00,,---,0.08,VWS V14.01,2013-02-08 20:03:00,
2013-02-08 14:06:00,55.2,28.1,28.91,NW,316,5.4,5.4,35,0.00,,---,0.08,VWS V14.01,2013-02-08 20:06:00,
2013-02-08 14:07:00,55.2,28.1,28.91,NW,324,11.0,11.0,35,0.00,,---,0.08,VWS V14.01,2013-02-08 20:07:00,
2013-02-08 14:08:00,55.2,28.1,28.91,NW,324,11.0,11.0,35,0.00,,---,0.08,VWS V14.01,2013-02-08 20:08:00,
2013-02-08 14:11:00,55.2,28.1,28.91,North,349,6.3,6.3,35,0.00,,---,0.08,VWS V14.01,2013-02-08 20:11:00,
2013-02-08 14:12:00,55.2,28.1,28.91,NNW,345,5.8,5.8,35,0.00,,---,0.08,VWS V14.01,2013-02-08 20:12:00,
2013-02-08 14:13:00,55.2,28.1,28.91,NNW,345,5.8,5.8,35,0.00,,---,0.08,VWS V14.01,2013-02-08 20:13:00,
2013-02-08 14:16:00,54.7,25.4,28.91,North,353,5.4,5.4,32,0.00,,---,0.08,VWS V14.01,2013-02-08 20:16:00,
2013-02-08 14:17:00,54.7,25.4,28.91,NNW,328,8.7,8.7,32,0.00,,---,0.08,VWS V14.01,2013-02-08 20:17:00,
2013-02-08 14:18:00,54.5,25.3,28.91,NNW,328,8.7,8.7,32,0.00,,---,0.08,VWS V14.01,2013-02-08 20:18:00,
2013-02-08 14:21:00,54.5,25.3,28.91,North,357,7.6,7.6,32,0.00,,---,0.08,VWS V14.01,2013-02-08 20:21:00,
2013-02-08 14:22:00,54.5,25.3,28.91,North,357,7.6,7.6,32,0.00,,---,0.08,VWS V14.01,2013-02-08 20:22:00,
2013-02-08 14:23:00,54.5,25.3,28.94,NNE,23,5.8,7.6,32,0.00,,---,0.08,VWS V14.01,2013-02-08 20:23:00,
2013-02-08 14:24:00,54.5,25.3,28.94,NNE,23,5.8,7.6,32,0.00,,---,0.08,VWS V14.01,2013-02-08 20:24:00,
2013-02-08 14:26:00,54.0,23.2,28.94,NNW,332,6.3,6.3,30,0.00,,---,0.08,VWS V14.01,2013-02-08 20:26:00,
2013-02-08 14:27:00,54.0,23.2,28.94,NNW,332,6.3,6.3,30,0.00,,---,0.08,VWS V14.01,2013-02-08 20:27:00,
2013-02-08 14:28:00,54.0,23.2,28.94,NNW,332,6.3,6.3,30,0.00,,---,0.08,VWS V14.01,2013-02-08 20:28:00,
2013-02-08 14:29:00,54.0,23.2,28.94,NNW,332,6.3,6.3,30,0.00,,---,0.00,VWS V14.01,2013-02-08 20:29:00,
2013-02-08 14:31:00,54.0,23.2,28.94,North,353,5.8,7.6,30,0.00,,---,0.08,VWS V14.01,2013-02-08 20:31:00,
2013-02-08 14:32:00,54.0,23.2,28.94,NNW,332,5.8,5.8,30,0.00,,---,0.08,VWS V14.01,2013-02-08 20:32:00,
2013-02-08 14:33:00,54.0,23.2,28.94,NNW,343,9.6,9.6,30,0.00,,---,0.08,VWS V14.01,2013-02-08 20:33:00,
2013-02-08 14:34:00,54.0,23.2,28.94,NNW,328,8.7,9.6,30,0.00,,---,0.08,VWS V14.01,2013-02-08 20:34:00,
2013-02-08 14:37:00,54.0,23.2,28.94,North,353,4.0,8.1,30,0.00,,---,0.08,VWS V14.01,2013-02-08 20:37:00,
2013-02-08 14:38:00,54.0,23.2,28.94,North,357,5.8,5.8,30,0.00,,---,0.08,VWS V14.01,2013-02-08 20:38:00,
2013-02-08 14:39:00,54.0,23.2,28.94,North,357,5.8,5.8,30,0.00,,---,0.08,VWS V14.01,2013-02-08 20:39:00,
2013-02-08 14:42:00,54.0,23.2,28.94,NW,313,5.8,5.8,30,0.00,,---,0.08,VWS V14.01,2013-02-08 20:42:00,
2013-02-08 14:44:00,54.0,23.2,28.94,NW,313,12.8,12.8,30,0.00,,---,0.08,VWS V14.01,2013-02-08 20:44:00,
2013-02-08 14:46:00,53.1,23.2,28.94,NNW,330,12.3,12.3,31,0.00,,---,0.08,VWS V14.01,2013-02-08 20:46:00,
2013-02-08 14:47:00,53.1,23.2,28.94,NNW,343,6.3,12.3,31,0.00,,---,0.08,VWS V14.01,2013-02-08 20:47:00,
2013-02-08 14:49:00,53.1,24.7,28.94,NNW,343,6.3,6.3,33,0.00,,---,0.08,VWS V14.01,2013-02-08 20:49:00,
2013-02-08 14:52:00,53.1,24.7,28.94,North,2,10.1,10.1,33,0.00,,---,0.08,VWS V14.01,2013-02-08 20:52:00,
2013-02-08 14:53:00,52.9,23.9,28.94,North,2,10.1,10.1,32,0.00,,---,0.08,VWS V14.01,2013-02-08 20:53:00,
2013-02-08 14:54:00,52.9,24.6,28.94,NNW,327,10.5,10.5,33,0.00,,---,0.08,VWS V14.01,2013-02-08 20:54:00,
2013-02-08 14:57:00,52.7,23.7,28.94,NW,315,5.4,5.4,32,0.00,,---,0.08,VWS V14.01,2013-02-08 20:57:00,
2013-02-08 14:58:00,52.7,23.7,28.94,NNW,339,5.4,5.4,32,0.00,,---,0.08,VWS V14.01,2013-02-08 20:58:00,
2013-02-08 14:59:00,52.7,23.7,28.94,NNW,331,3.6,3.6,32,0.00,,---,0.08,VWS V14.01,2013-02-08 20:59:00,
2013-02-08 15:02:00,52.2,24.7,28.94,NW,325,9.6,9.6,34,0.00,,---,0.08,VWS V14.01,2013-02-08 21:02:00,
2013-02-08 15:03:00,52.2,24.7,28.94,NW,325,9.6,9.6,34,0.00,,---,0.08,VWS V14.01,2013-02-08 21:03:00,
2013-02-08 15:04:00,52.2,24.7,28.94,NW,325,9.6,9.6,34,0.00,,---,0.08,VWS V14.01,2013-02-08 21:04:00,
2013-02-08 15:07:00,52.2,24.7,28.94,NNE,13,10.1,10.1,34,0.00,,---,0.08,VWS V14.01,2013-02-08 21:07:00,
2013-02-08 15:08:00,52.2,24.7,28.94,NNE,13,10.1,10.1,34,0.00,,---,0.08,VWS V14.01,2013-02-08 21:08:00,
2013-02-08 15:09:00,52.2,24.7,28.94,NNW,338,5.4,5.4,34,0.00,,---,0.08,VWS V14.01,2013-02-08 21:09:00,
2013-02-08 15:10:00,52.0,25.2,28.94,North,349,7.6,7.6,35,0.00,,---,0.08,VWS V14.01,2013-02-08 21:10:00,
2013-02-08 15:12:00,51.8,23.6,28.94,NW,322,3.1,7.6,33,0.00,,---,0.08,VWS V14.01,2013-02-08 21:12:00,
2013-02-08 15:13:00,51.8,23.6,28.94,NW,322,3.1,3.1,33,0.00,,---,0.08,VWS V14.01,2013-02-08 21:13:00,
2013-02-08 15:14:00,51.8,23.6,28.94,NNW,339,8.3,8.3,33,0.00,,---,0.08,VWS V14.01,2013-02-08 21:14:00,
2013-02-08 15:15:00,51.8,23.6,28.94,NNW,339,8.3,8.3,33,0.00,,---,0.08,VWS V14.01,2013-02-08 21:15:00,
2013-02-08 15:18:00,51.8,23.6,28.94,NW,316,6.3,6.3,33,0.00,,---,0.08,VWS V14.01,2013-02-08 21:18:00,
2013-02-08 15:19:00,51.4,24.7,28.94,North,0,8.1,12.8,35,0.00,,---,0.08,VWS V14.01,2013-02-08 21:19:00,
2013-02-08 15:20:00,51.4,24.7,28.94,North,0,8.1,12.8,35,0.00,,---,0.08,VWS V14.01,2013-02-08 21:20:00,
2013-02-08 15:23:00,51.3,25.2,28.94,NNW,340,11.0,11.0,36,0.00,,---,0.08,VWS V14.01,2013-02-08 21:23:00,
2013-02-08 15:24:00,51.3,25.2,28.97,North,357,10.1,10.1,36,0.00,,---,0.08,VWS V14.01,2013-02-08 21:24:00,
2013-02-08 15:25:00,51.3,25.2,28.97,North,357,10.1,10.1,36,0.00,,---,0.08,VWS V14.01,2013-02-08 21:25:00,
2013-02-08 15:28:00,51.3,25.2,28.97,NNW,346,6.3,6.3,36,0.00,,---,0.08,VWS V14.01,2013-02-08 21:28:00,
2013-02-08 15:29:00,51.3,25.2,28.97,NNW,339,8.3,8.3,36,0.00,,---,0.08,VWS V14.01,2013-02-08 21:29:00,
2013-02-08 15:30:00,51.3,25.2,28.97,NNW,339,8.3,8.3,36,0.00,,---,0.08,VWS V14.01,2013-02-08 21:30:00,
2013-02-08 15:33:00,50.4,23.8,28.97,North,353,11.0,11.0,35,0.00,,---,0.08,VWS V14.01,2013-02-08 21:33:00,
2013-02-08 15:35:00,50.4,23.8,28.97,NW,317,8.1,8.1,35,0.00,,---,0.08,VWS V14.01,2013-02-08 21:35:00,
2013-02-08 15:38:00,50.0,22.8,28.97,North,357,7.6,7.6,34,0.00,,---,0.08,VWS V14.01,2013-02-08 21:38:00,
2013-02-08 15:39:00,50.0,22.8,28.97,North,357,7.6,7.6,34,0.00,,---,0.08,VWS V14.01,2013-02-08 21:39:00,
2013-02-08 15:40:00,49.8,24.0,28.97,North,357,7.6,7.6,36,0.00,,---,0.08,VWS V14.01,2013-02-08 21:40:00,
2013-02-08 15:43:00,49.6,23.8,28.97,NNW,348,5.4,5.4,36,0.00,,---,0.08,VWS V14.01,2013-02-08 21:43:00,
2013-02-08 15:44:00,49.6,23.8,28.97,NW,313,12.3,12.3,36,0.00,,---,0.08,VWS V14.01,2013-02-08 21:44:00,
2013-02-08 15:45:00,49.6,23.8,28.97,NNW,331,4.0,4.0,36,0.00,,---,0.08,VWS V14.01,2013-02-08 21:45:00,
2013-02-08 15:48:00,49.5,23.0,28.97,NNW,344,5.8,5.8,35,0.00,,---,0.08,VWS V14.01,2013-02-08 21:48:00,
2013-02-08 15:49:00,49.5,23.0,28.97,NNE,22,8.1,8.1,35,0.00,,---,0.08,VWS V14.01,2013-02-08 21:49:00,
2013-02-08 15:50:00,49.5,23.0,28.97,NW,318,6.3,6.3,35,0.00,,---,0.08,VWS V14.01,2013-02-08 21:50:00,
2013-02-08 15:53:00,49.5,23.0,28.97,NNW,328,5.4,5.4,35,0.00,,---,0.08,VWS V14.01,2013-02-08 21:53:00,
2013-02-08 15:54:00,49.5,23.0,28.97,NNW,346,8.7,8.7,35,0.00,,---,0.08,VWS V14.01,2013-02-08 21:54:00,
2013-02-08 15:55:00,49.5,23.0,28.97,NNW,343,7.6,7.6,35,0.00,,---,0.08,VWS V14.01,2013-02-08 21:55:00,
2013-02-08 15:58:00,49.5,23.0,28.97,NW,322,6.3,6.3,35,0.00,,---,0.08,VWS V14.01,2013-02-08 21:58:00,
2013-02-08 15:59:00,49.5,23.0,28.97,NW,322,6.3,6.3,35,0.00,,---,0.08,VWS V14.01,2013-02-08 21:59:00,
2013-02-08 16:00:00,48.7,23.0,28.97,NNW,348,6.3,6.3,36,0.00,,---,0.08,VWS V14.01,2013-02-08 22:00:00,
2013-02-08 16:03:00,48.7,23.0,28.97,NW,322,5.8,5.8,36,0.00,,---,0.08,VWS V14.01,2013-02-08 22:03:00,
2013-02-08 16:04:00,48.7,23.0,28.97,NW,322,5.8,5.8,36,0.00,,---,0.08,VWS V14.01,2013-02-08 22:04:00,
2013-02-08 16:05:00,48.7,23.0,28.97,NW,313,10.1,10.1,36,0.00,,---,0.08,VWS V14.01,2013-02-08 22:05:00,
2013-02-08 16:08:00,48.4,22.7,28.97,North,353,6.3,6.3,36,0.00,,---,0.08,VWS V14.01,2013-02-08 22:08:00,
2013-02-08 16:09:00,48.4,22.7,28.97,North,353,6.3,6.3,36,0.00,,---,0.08,VWS V14.01,2013-02-08 22:09:00,
2013-02-08 16:10:00,48.4,22.7,28.97,North,353,6.3,6.3,36,0.00,,---,0.08,VWS V14.01,2013-02-08 22:10:00,
2013-02-08 16:11:00,48.4,22.7,28.97,NNW,327,5.4,6.3,36,0.00,,---,0.08,VWS V14.01,2013-02-08 22:11:00,
2013-02-08 16:13:00,48.2,22.5,28.97,NNW,343,7.6,7.6,36,0.00,,---,0.08,VWS V14.01,2013-02-08 22:13:00,
2013-02-08 16:14:00,48.2,22.5,28.97,NNW,343,7.6,7.6,36,0.00,,---,0.08,VWS V14.01,2013-02-08 22:14:00,
2013-02-08 16:15:00,48.2,22.5,28.97,NNW,331,6.3,7.6,36,0.00,,---,0.08,VWS V14.01,2013-02-08 22:15:00,
2013-02-08 16:16:00,48.2,22.5,28.97,NNW,331,6.3,7.6,36,0.00,,---,0.08,VWS V14.01,2013-02-08 22:16:00,
2013-02-08 16:18:00,48.0,23.0,28.97,North,357,4.0,4.0,37,0.00,,---,0.08,VWS V14.01,2013-02-08 22:18:00,
2013-02-08 16:19:00,48.0,23.0,28.97,North,357,4.0,4.0,37,0.00,,---,0.08,VWS V14.01,2013-02-08 22:19:00,
2013-02-08 16:21:00,47.8,22.9,28.97,NNW,343,5.8,5.8,37,0.00,,---,0.08,VWS V14.01,2013-02-08 22:21:00,
2013-02-08 16:24:00,47.7,22.7,28.97,NW,326,5.8,5.8,37,0.00,,---,0.08,VWS V14.01,2013-02-08 22:24:00,
2013-02-08 16:26:00,47.7,22.7,28.97,North,353,6.3,6.3,37,0.00,,---,0.08,VWS V14.01,2013-02-08 22:26:00,
2013-02-08 16:29:00,47.5,22.5,28.97,North,353,6.3,6.3,37,0.00,,---,0.08,VWS V14.01,2013-02-08 22:29:00,
2013-02-08 16:31:00,47.3,22.4,28.97,North,353,6.3,6.3,37,0.00,,---,0.08,VWS V14.01,2013-02-08 22:31:00,
2013-02-08 16:34:00,47.3,22.4,28.97,NNW,330,11.0,11.0,37,0.00,,---,0.08,VWS V14.01,2013-02-08 22:34:00,
2013-02-08 16:36:00,47.3,22.4,28.97,North,3,9.6,9.6,37,0.00,,---,0.08,VWS V14.01,2013-02-08 22:36:00,
2013-02-08 16:37:00,47.1,22.2,28.97,North,3,9.6,9.6,37,0.00,,---,0.08,VWS V14.01,2013-02-08 22:37:00,
2013-02-08 16:39:00,46.9,22.0,28.97,NNW,340,8.1,8.1,37,0.00,,---,0.08,VWS V14.01,2013-02-08 22:39:00,
2013-02-08 16:41:00,46.9,22.0,28.97,NNW,340,8.1,8.1,37,0.00,,---,0.08,VWS V14.01,2013-02-08 22:41:00,
2013-02-08 16:42:00,46.9,22.0,28.97,NNW,333,11.0,11.0,37,0.00,,---,0.08,VWS V14.01,2013-02-08 22:42:00,
2013-02-08 16:44:00,46.9,22.0,28.97,North,353,7.6,7.6,37,0.00,,---,0.08,VWS V14.01,2013-02-08 22:44:00,
2013-02-08 16:46:00,46.4,21.6,28.97,NNW,339,4.0,4.0,37,0.00,,---,0.08,VWS V14.01,2013-02-08 22:46:00,
2013-02-08 16:47:00,46.4,21.6,28.97,NNW,333,3.6,3.6,37,0.00,,---,0.08,VWS V14.01,2013-02-08 22:47:00,
2013-02-08 16:49:00,46.2,22.0,28.97,NNW,333,3.6,3.6,38,0.00,,---,0.08,VWS V14.01,2013-02-08 22:49:00,
2013-02-08 16:51:00,46.2,22.0,28.97,NW,325,6.3,6.3,38,0.00,,---,0.08,VWS V14.01,2013-02-08 22:51:00,
2013-02-08 16:52:00,46.2,22.0,28.97,NNW,327,8.1,8.1,38,0.00,,---,0.08,VWS V14.01,2013-02-08 22:52:00,
2013-02-08 16:54:00,46.0,21.9,29.00,NNW,327,8.1,8.1,38,0.00,,---,0.08,VWS V14.01,2013-02-08 22:54:00,
2013-02-08 16:55:00,46.0,21.9,29.00,NNW,327,8.1,8.1,38,0.00,,---,0.08,VWS V14.01,2013-02-08 22:55:00,
2013-02-08 16:56:00,45.9,21.7,29.00,NNW,327,8.1,8.1,38,0.00,,---,0.08,VWS V14.01,2013-02-08 22:56:00,
2013-02-08 16:57:00,45.9,21.7,29.00,NNW,327,8.1,8.1,38,0.00,,---,0.08,VWS V14.01,2013-02-08 22:57:00,
2013-02-08 17:00:00,45.9,21.7,29.00,NNW,327,8.1,8.1,38,0.00,,---,0.08,VWS V14.01,2013-02-08 23:00:00,
2013-02-08 17:02:00,45.9,21.7,29.00,NNW,343,5.8,5.8,38,0.00,,---,0.08,VWS V14.01,2013-02-08 23:02:00,
2013-02-08 17:05:00,45.3,21.2,29.00,NNW,343,5.8,5.8,38,0.00,,---,0.08,VWS V14.01,2013-02-08 23:05:00,
2013-02-08 17:07:00,45.1,21.1,29.00,WNW,290,3.6,3.6,38,0.00,,---,0.08,VWS V14.01,2013-02-08 23:07:00,
2013-02-08 17:10:00,44.8,21.4,29.00,North,353,4.9,4.9,39,0.00,,---,0.08,VWS V14.01,2013-02-08 23:10:00,
2013-02-08 17:12:00,44.8,21.4,29.00,North,353,4.9,4.9,39,0.00,,---,0.08,VWS V14.01,2013-02-08 23:12:00,
2013-02-08 17:15:00,44.8,21.4,29.00,NE,49,5.4,5.4,39,0.00,,---,0.08,VWS V14.01,2013-02-08 23:15:00,
2013-02-08 17:17:00,44.8,21.4,29.00,NNE,13,9.6,9.6,39,0.00,,---,0.08,VWS V14.01,2013-02-08 23:17:00,
2013-02-08 17:18:00,44.8,21.4,29.00,North,350,5.4,9.6,39,0.00,,---,0.08,VWS V14.01,2013-02-08 23:18:00,
2013-02-08 17:20:00,44.1,20.7,29.00,North,357,8.7,8.7,39,0.00,,---,0.08,VWS V14.01,2013-02-08 23:20:00,
2013-02-08 17:22:00,43.9,20.5,29.00,North,357,8.7,8.7,39,0.00,,---,0.08,VWS V14.01,2013-02-08 23:22:00,
2013-02-08 17:23:00,43.9,20.5,29.00,North,357,8.7,8.7,39,0.00,,---,0.08,VWS V14.01,2013-02-08 23:23:00,
2013-02-08 17:25:00,43.9,20.5,29.00,North,357,8.7,8.7,39,0.00,,---,0.08,VWS V14.01,2013-02-08 23:25:00,
2013-02-08 17:27:00,43.9,20.5,29.00,NNW,340,8.1,8.1,39,0.00,,---,0.08,VWS V14.01,2013-02-08 23:27:00,
2013-02-08 17:28:00,43.3,20.6,29.00,NNW,340,8.1,8.1,40,0.00,,---,0.08,VWS V14.01,2013-02-08 23:28:00,
2013-02-08 17:30:00,43.2,20.5,29.00,NNW,340,8.1,8.1,40,0.00,,---,0.08,VWS V14.01,2013-02-08 23:30:00,
2013-02-08 17:31:00,43.2,20.5,29.00,NNW,340,8.1,8.1,40,0.00,,---,0.08,VWS V14.01,2013-02-08 23:31:00,
2013-02-08 17:32:00,43.0,20.3,29.00,NNW,340,8.1,8.1,40,0.00,,---,0.08,VWS V14.01,2013-02-08 23:32:00,
2013-02-08 17:33:00,43.0,20.3,29.00,North,4,3.1,3.1,40,0.00,,---,0.08,VWS V14.01,2013-02-08 23:33:00,
2013-02-08 17:35:00,43.0,20.3,29.00,NW,325,3.6,3.6,40,0.00,,---,0.08,VWS V14.01,2013-02-08 23:35:00,
2013-02-08 17:36:00,43.0,20.3,29.00,NW,325,3.6,3.6,40,0.00,,---,0.08,VWS V14.01,2013-02-08 23:36:00,
2013-02-08 17:37:00,43.0,20.3,29.00,NW,325,3.6,3.6,40,0.00,,---,0.08,VWS V14.01,2013-02-08 23:37:00,
2013-02-08 17:38:00,43.0,20.3,29.00,NNW,336,5.4,5.4,40,0.00,,---,0.08,VWS V14.01,2013-02-08 23:38:00,
2013-02-08 17:40:00,43.0,20.3,29.00,NNE,24,5.8,5.8,40,0.00,,---,0.08,VWS V14.01,2013-02-08 23:40:00,
2013-02-08 17:41:00,43.0,20.3,29.00,NNE,24,5.8,5.8,40,0.00,,---,0.08,VWS V14.01,2013-02-08 23:41:00,
2013-02-08 17:42:00,43.0,20.3,29.03,NNE,24,5.8,5.8,40,0.00,,---,0.08,VWS V14.01,2013-02-08 23:42:00,
2013-02-08 17:44:00,43.0,20.3,29.03,North,357,3.6,5.8,40,0.00,,---,0.08,VWS V14.01,2013-02-08 23:44:00,
2013-02-08 17:45:00,41.9,19.9,29.03,North,357,3.6,3.6,41,0.00,,---,0.08,VWS V14.01,2013-02-08 23:45:00,
2013-02-08 17:46:00,41.9,19.9,29.03,North,357,3.6,3.6,41,0.00,,---,0.08,VWS V14.01,2013-02-08 23:46:00,
2013-02-08 17:47:00,41.7,19.8,29.03,North,357,3.6,3.6,41,0.00,,---,0.08,VWS V14.01,2013-02-08 23:47:00,
2013-02-08 17:49:00,41.7,19.8,29.03,North,357,3.6,3.6,41,0.00,,---,0.08,VWS V14.01,2013-02-08 23:49:00,
2013-02-08 17:51:00,41.7,19.8,29.03,NNW,332,5.8,5.8,41,0.00,,---,0.08,VWS V14.01,2013-02-08 23:51:00,
2013-02-08 17:53:00,41.7,19.8,29.03,North,353,8.3,8.3,41,0.00,,---,0.08,VWS V14.01,2013-02-08 23:53:00,
2013-02-08 17:54:00,41.5,20.2,29.03,NNW,337,4.0,4.0,42,0.00,,---,0.08,VWS V14.01,2013-02-08 23:54:00,
2013-02-08 17:56:00,41.5,20.2,29.03,NNW,337,4.0,4.0,42,0.00,,---,0.08,VWS V14.01,2013-02-08 23:56:00,
2013-02-08 17:58:00,41.2,19.9,29.03,NNW,337,4.0,4.0,42,0.00,,---,0.08,VWS V14.01,2013-02-08 23:58:00,
2013-02-08 17:59:00,41.2,19.9,29.03,NNW,342,4.0,4.0,42,0.00,,---,0.08,VWS V14.01,2013-02-08 23:59:00,
2013-02-08 18:01:00,41.2,19.9,29.03,NW,326,3.6,4.0,42,0.00,,---,0.08,VWS V14.01,2013-02-09 00:01:00,
2013-02-08 18:03:00,41.2,19.9,29.03,NW,326,3.6,3.6,42,0.00,,---,0.08,VWS V14.01,2013-02-09 00:03:00,
2013-02-08 18:05:00,41.2,19.9,29.03,NW,326,3.6,3.6,42,0.00,,---,0.08,VWS V14.01,2013-02-09 00:05:00,
2013-02-08 18:06:00,41.2,19.9,29.03,NW,326,3.6,3.6,42,0.00,,---,0.08,VWS V14.01,2013-02-09 00:06:00,
2013-02-08 18:08:00,41.2,19.9,29.03,WNW,298,8.3,8.3,42,0.00,,---,0.08,VWS V14.01,2013-02-09 00:08:00,
2013-02-08 18:10:00,41.2,19.9,29.03,NNW,344,4.9,8.3,42,0.00,,---,0.08,VWS V14.01,2013-02-09 00:10:00,
2013-02-08 18:11:00,41.2,19.9,29.03,NNW,344,4.9,4.9,42,0.00,,---,0.08,VWS V14.01,2013-02-09 00:11:00,
2013-02-08 18:13:00,40.5,20.3,29.03,NNW,333,8.7,8.7,44,0.00,,---,0.08,VWS V14.01,2013-02-09 00:13:00,
2013-02-08 18:15:00,40.5,20.3,29.03,NNW,333,8.7,8.7,44,0.00,,---,0.08,VWS V14.01,2013-02-09 00:15:00,
2013-02-08 18:16:00,40.5,20.3,29.03,NNW,333,8.7,8.7,44,0.00,,---,0.08,VWS V14.01,2013-02-09 00:16:00,
2013-02-08 18:18:00,40.5,20.3,29.03,NNW,333,8.7,8.7,44,0.00,,---,0.08,VWS V14.01,2013-02-09 00:18:00,
2013-02-08 18:20:00,40.3,20.1,29.03,NNW,333,8.7,8.7,44,0.00,,---,0.08,VWS V14.01,2013-02-09 00:20:00,
2013-02-08 18:21:00,40.3,20.1,29.03,NNW,333,8.7,8.7,44,0.00,,---,0.08,VWS V14.01,2013-02-09 00:21:00,
2013-02-08 18:23:00,40.1,20.0,29.03,NNW,333,8.7,8.7,44,0.00,,---,0.08,VWS V14.01,2013-02-09 00:23:00,
2013-02-08 18:25:00,40.1,20.5,29.03,North,2,4.0,8.7,45,0.00,,---,0.08,VWS V14.01,2013-02-09 00:25:00,
2013-02-08 18:26:00,40.1,20.5,29.03,North,2,4.0,4.0,45,0.00,,---,0.08,VWS V14.01,2013-02-09 00:26:00,
2013-02-08 18:28:00,40.1,20.5,29.03,NW,322,3.6,3.6,45,0.00,,---,0.08,VWS V14.01,2013-02-09 00:28:00,
2013-02-08 18:30:00,40.1,20.5,29.03,NW,322,3.6,3.6,45,0.00,,---,0.08,VWS V14.01,2013-02-09 00:30:00,
2013-02-08 18:31:00,40.1,20.5,29.03,NW,322,3.6,3.6,45,0.00,,---,0.08,VWS V14.01,2013-02-09 00:31:00,
2013-02-08 18:33:00,40.1,20.5,29.03,North,353,3.1,3.1,45,0.00,,---,0.08,VWS V14.01,2013-02-09 00:33:00,
2013-02-08 18:35:00,40.1,20.5,29.03,NW,325,3.6,3.6,45,0.00,,---,0.08,VWS V14.01,2013-02-09 00:35:00,
2013-02-08 18:36:00,40.1,20.5,29.03,NW,325,3.6,3.6,45,0.00,,---,0.08,VWS V14.01,2013-02-09 00:36:00,
2013-02-08 18:38:00,39.7,21.2,29.06,NW,325,3.6,3.6,47,0.00,,---,0.08,VWS V14.01,2013-02-09 00:38:00,
2013-02-08 18:40:00,39.7,21.2,29.06,NW,325,3.6,3.6,47,0.00,,---,0.08,VWS V14.01,2013-02-09 00:40:00,
2013-02-08 18:41:00,39.7,21.2,29.06,NW,325,3.6,3.6,47,0.00,,---,0.08,VWS V14.01,2013-02-09 00:41:00,
2013-02-08 18:42:00,39.7,21.2,29.06,NW,325,3.6,3.6,47,0.00,,---,0.08,VWS V14.01,2013-02-09 00:42:00,
2013-02-08 18:43:00,39.7,21.2,29.06,NW,325,3.6,3.6,47,0.00,,---,0.08,VWS V14.01,2013-02-09 00:43:00,
2013-02-08 18:45:00,39.7,21.2,29.06,NNW,328,7.6,7.6,47,0.00,,---,0.08,VWS V14.01,2013-02-09 00:45:00,
2013-02-08 18:46:00,39.7,21.2,29.06,NNW,328,7.6,7.6,47,0.00,,---,0.08,VWS V14.01,2013-02-09 00:46:00,
2013-02-08 18:47:00,39.7,21.2,29.06,North,357,5.4,7.6,47,0.00,,---,0.08,VWS V14.01,2013-02-09 00:47:00,
2013-02-08 18:48:00,39.7,21.2,29.06,North,357,5.4,5.4,47,0.00,,---,0.08,VWS V14.01,2013-02-09 00:48:00,
2013-02-08 18:50:00,39.7,21.2,29.06,NNW,345,5.4,5.4,47,0.00,,---,0.08,VWS V14.01,2013-02-09 00:50:00,
2013-02-08 18:51:00,39.7,21.2,29.06,NNW,345,5.4,5.4,47,0.00,,---,0.08,VWS V14.01,2013-02-09 00:51:00,
2013-02-08 18:52:00,39.7,21.2,29.06,NNW,345,5.4,5.4,47,0.00,,---,0.08,VWS V14.01,2013-02-09 00:52:00,
2013-02-08 18:53:00,39.7,21.2,29.06,NW,316,3.6,3.6,47,0.00,,---,0.08,VWS V14.01,2013-02-09 00:53:00,
2013-02-08 18:56:00,39.7,21.2,29.06,NNW,334,5.4,5.4,47,0.00,,---,0.08,VWS V14.01,2013-02-09 00:56:00,
2013-02-08 18:57:00,39.7,21.2,29.06,NNW,334,5.4,5.4,47,0.00,,---,0.08,VWS V14.01,2013-02-09 00:57:00,
2013-02-08 18:59:00,39.7,21.2,29.06,North,353,5.8,5.8,47,0.00,,---,0.08,VWS V14.01,2013-02-09 00:59:00,
2013-02-08 19:01:00,39.7,21.2,29.06,NNW,331,3.6,3.6,47,0.00,,---,0.08,VWS V14.01,2013-02-09 01:01:00,
2013-02-08 19:02:00,39.7,21.2,29.06,NNE,23,3.1,3.6,47,0.00,,---,0.08,VWS V14.01,2013-02-09 01:02:00,
2013-02-08 19:04:00,39.7,21.2,29.06,NNE,23,3.1,3.1,47,0.00,,---,0.08,VWS V14.01,2013-02-09 01:04:00,
2013-02-08 19:06:00,39.7,21.2,29.06,NNE,23,3.1,3.1,47,0.00,,---,0.08,VWS V14.01,2013-02-09 01:06:00,
2013-02-08 19:07:00,39.6,21.0,29.06,NNE,23,3.1,3.1,47,0.00,,---,0.08,VWS V14.01,2013-02-09 01:07:00,
2013-02-08 19:09:00,39.6,21.0,29.06,NNE,23,3.1,3.1,47,0.00,,---,0.08,VWS V14.01,2013-02-09 01:09:00,
2013-02-08 19:11:00,39.6,21.0,29.06,NNE,23,3.1,3.1,47,0.00,,---,0.08,VWS V14.01,2013-02-09 01:11:00,
2013-02-08 19:12:00,39.6,21.0,29.06,NNE,23,3.1,3.1,47,0.00,,---,0.08,VWS V14.01,2013-02-09 01:12:00,
2013-02-08 19:14:00,39.4,20.8,29.06,NNE,12,6.3,6.3,47,0.00,,---,0.08,VWS V14.01,2013-02-09 01:14:00,
2013-02-08 19:16:00,39.2,20.2,29.06,NNE,12,6.3,6.3,46,0.00,,---,0.08,VWS V14.01,2013-02-09 01:16:00,
2013-02-08 19:17:00,39.2,20.2,29.06,NNW,331,3.6,6.3,46,0.00,,---,0.08,VWS V14.01,2013-02-09 01:17:00,
2013-02-08 19:19:00,39.2,20.2,29.06,NW,326,4.9,5.4,46,0.00,,---,0.08,VWS V14.01,2013-02-09 01:19:00,
2013-02-08 19:21:00,39.2,20.2,29.06,NW,326,4.9,4.9,46,0.00,,---,0.08,VWS V14.01,2013-02-09 01:21:00,
2013-02-08 19:22:00,39.2,20.2,29.06,NW,326,4.9,4.9,46,0.00,,---,0.08,VWS V14.01,2013-02-09 01:22:00,
2013-02-08 19:24:00,39.2,20.2,29.06,NW,326,4.9,4.9,46,0.00,,---,0.08,VWS V14.01,2013-02-09 01:24:00,
2013-02-08 19:26:00,39.2,20.2,29.06,NW,326,4.9,4.9,46,0.00,,---,0.08,VWS V14.01,2013-02-09 01:26:00,
2013-02-08 19:27:00,39.2,20.2,29.06,NNW,344,5.8,8.1,46,0.00,,---,0.08,VWS V14.01,2013-02-09 01:27:00,
2013-02-08 19:29:00,39.2,20.2,29.06,NNW,345,8.1,8.1,46,0.00,,---,0.08,VWS V14.01,2013-02-09 01:29:00,
2013-02-08 19:31:00,39.0,19.0,29.06,North,357,7.6,7.6,44,0.00,,---,0.08,VWS V14.01,2013-02-09 01:31:00,
2013-02-08 19:32:00,39.0,19.0,29.06,North,357,7.6,7.6,44,0.00,,---,0.08,VWS V14.01,2013-02-09 01:32:00,
2013-02-08 19:33:00,39.0,19.0,29.06,North,357,7.6,7.6,44,0.00,,---,0.08,VWS V14.01,2013-02-09 01:33:00,
2013-02-08 19:34:00,39.0,19.0,29.06,North,357,7.6,7.6,44,0.00,,---,0.08,VWS V14.01,2013-02-09 01:34:00,
2013-02-08 19:36:00,39.0,19.0,29.06,North,357,7.6,7.6,44,0.00,,---,0.08,VWS V14.01,2013-02-09 01:36:00,
2013-02-08 19:38:00,39.0,19.0,29.06,North,357,7.6,7.6,44,0.00,,---,0.08,VWS V14.01,2013-02-09 01:38:00,
2013-02-08 19:39:00,38.7,18.1,29.06,North,357,7.6,7.6,43,0.00,,---,0.08,VWS V14.01,2013-02-09 01:39:00,
2013-02-08 19:41:00,38.7,18.1,29.06,NNW,333,3.1,3.1,43,0.00,,---,0.08,VWS V14.01,2013-02-09 01:41:00,
2013-02-08 19:43:00,38.7,18.1,29.06,NNW,335,5.8,5.8,43,0.00,,---,0.08,VWS V14.01,2013-02-09 01:43:00,
2013-02-08 19:44:00,38.5,17.9,29.06,North,353,4.9,5.8,43,0.00,,---,0.08,VWS V14.01,2013-02-09 01:44:00,
2013-02-08 19:46:00,38.5,17.9,29.06,North,353,4.9,4.9,43,0.00,,---,0.08,VWS V14.01,2013-02-09 01:46:00,
2013-02-08 19:48:00,38.5,17.9,29.06,North,353,4.9,4.9,43,0.00,,---,0.08,VWS V14.01,2013-02-09 01:48:00,
2013-02-08 19:49:00,38.5,17.9,29.06,North,353,4.9,4.9,43,0.00,,---,0.08,VWS V14.01,2013-02-09 01:49:00,
2013-02-08 19:51:00,38.5,17.9,29.06,NNE,12,5.8,5.8,43,0.00,,---,0.08,VWS V14.01,2013-02-09 01:51:00,
2013-02-08 19:53:00,38.1,17.6,29.06,North,353,4.0,4.0,43,0.00,,---,0.08,VWS V14.01,2013-02-09 01:53:00,
2013-02-08 19:54:00,38.1,17.6,29.06,North,353,4.0,4.0,43,0.00,,---,0.08,VWS V14.01,2013-02-09 01:54:00,
2013-02-08 19:55:00,38.1,17.6,29.06,North,353,4.0,4.0,43,0.00,,---,0.08,VWS V14.01,2013-02-09 01:55:00,
2013-02-08 19:56:00,38.1,17.6,29.06,North,353,4.0,4.0,43,0.00,,---,0.08,VWS V14.01,2013-02-09 01:56:00,
2013-02-08 19:58:00,38.1,17.6,29.09,North,353,4.0,4.0,43,0.00,,---,0.08,VWS V14.01,2013-02-09 01:58:00,
2013-02-08 19:59:00,38.1,17.6,29.09,North,353,4.0,4.0,43,0.00,,---,0.08,VWS V14.01,2013-02-09 01:59:00,
2013-02-08 20:00:00,38.1,17.6,29.09,North,353,4.0,4.0,43,0.00,,---,0.08,VWS V14.01,2013-02-09 02:00:00,
2013-02-08 20:01:00,38.1,17.6,29.09,North,353,4.0,4.0,43,0.00,,---,0.08,VWS V14.01,2013-02-09 02:01:00,
2013-02-08 20:04:00,38.1,18.1,29.09,North,353,4.0,4.0,44,0.00,,---,0.08,VWS V14.01,2013-02-09 02:04:00,
2013-02-08 20:05:00,38.1,18.1,29.09,North,353,4.0,4.0,44,0.00,,---,0.08,VWS V14.01,2013-02-09 02:05:00,
2013-02-08 20:06:00,38.1,18.1,29.09,NW,324,10.1,10.1,44,0.00,,---,0.08,VWS V14.01,2013-02-09 02:06:00,
2013-02-08 20:09:00,38.3,17.8,29.09,NNE,22,8.3,10.1,43,0.00,,---,0.08,VWS V14.01,2013-02-09 02:09:00,
2013-02-08 20:11:00,38.3,17.8,29.09,NNW,341,4.0,8.3,43,0.00,,---,0.08,VWS V14.01,2013-02-09 02:11:00,
2013-02-08 20:12:00,38.3,17.8,29.09,NNW,341,4.0,4.0,43,0.00,,---,0.08,VWS V14.01,2013-02-09 02:12:00,
2013-02-08 20:14:00,38.3,17.8,29.09,NNW,341,4.0,4.0,43,0.00,,---,0.08,VWS V14.01,2013-02-09 02:14:00,
2013-02-08 20:16:00,38.3,17.8,29.09,NNW,341,4.0,4.0,43,0.00,,---,0.08,VWS V14.01,2013-02-09 02:16:00,
2013-02-08 20:17:00,38.5,17.9,29.09,NNW,341,4.0,4.0,43,0.00,,---,0.08,VWS V14.01,2013-02-09 02:17:00,
2013-02-08 20:19:00,38.5,17.9,29.09,NNW,341,4.0,4.0,43,0.00,,---,0.08,VWS V14.01,2013-02-09 02:19:00,
2013-02-08 20:21:00,38.5,17.9,29.09,North,357,5.4,5.4,43,0.00,,---,0.08,VWS V14.01,2013-02-09 02:21:00,
2013-02-08 20:24:00,38.5,17.9,29.09,NNW,343,8.3,8.3,43,0.00,,---,0.08,VWS V14.01,2013-02-09 02:24:00,
2013-02-08 20:25:00,38.5,17.9,29.09,NNW,343,8.3,8.3,43,0.00,,---,0.08,VWS V14.01,2013-02-09 02:25:00,
2013-02-08 20:26:00,38.5,17.9,29.09,NNW,343,8.3,8.3,43,0.00,,---,0.08,VWS V14.01,2013-02-09 02:26:00,
2013-02-08 20:27:00,38.5,17.9,29.09,NNW,343,8.3,8.3,43,0.00,,---,0.08,VWS V14.01,2013-02-09 02:27:00,
2013-02-08 20:29:00,38.5,17.9,29.09,NNW,343,8.3,8.3,43,0.00,,---,0.08,VWS V14.01,2013-02-09 02:29:00,
2013-02-08 20:30:00,38.5,17.9,29.09,NNW,343,8.3,8.3,43,0.00,,---,0.08,VWS V14.01,2013-02-09 02:30:00,
2013-02-08 20:31:00,38.5,17.9,29.09,NNW,343,8.3,8.3,43,0.00,,---,0.08,VWS V14.01,2013-02-09 02:31:00,
2013-02-08 20:32:00,38.5,17.9,29.09,NNW,343,8.3,8.3,43,0.00,,---,0.08,VWS V14.01,2013-02-09 02:32:00,
2013-02-08 20:34:00,38.5,17.9,29.09,North,357,5.8,8.1,43,0.00,,---,0.08,VWS V14.01,2013-02-09 02:34:00,
2013-02-08 20:35:00,38.5,17.9,29.09,North,357,5.8,8.1,43,0.00,,---,0.08,VWS V14.01,2013-02-09 02:35:00,
2013-02-08 20:36:00,38.5,17.9,29.09,North,357,5.8,5.8,43,0.00,,---,0.08,VWS V14.01,2013-02-09 02:36:00,
2013-02-08 20:37:00,38.5,17.9,29.09,NW,309,7.6,7.6,43,0.00,,---,0.08,VWS V14.01,2013-02-09 02:37:00,
2013-02-08 20:39:00,38.5,17.9,29.09,North,357,5.8,5.8,43,0.00,,---,0.08,VWS V14.01,2013-02-09 02:39:00,
2013-02-08 20:40:00,38.5,17.9,29.09,North,357,5.8,5.8,43,0.00,,---,0.08,VWS V14.01,2013-02-09 02:40:00,
2013-02-08 20:41:00,38.5,17.9,29.09,North,357,5.8,5.8,43,0.00,,---,0.08,VWS V14.01,2013-02-09 02:41:00,
2013-02-08 20:42:00,38.5,17.9,29.09,North,357,5.8,5.8,43,0.00,,---,0.08,VWS V14.01,2013-02-09 02:42:00,
2013-02-08 20:45:00,38.5,17.9,29.09,North,353,5.4,5.8,43,0.00,,---,0.08,VWS V14.01,2013-02-09 02:45:00,
2013-02-08 20:46:00,38.5,17.9,29.09,North,353,5.4,5.4,43,0.00,,---,0.08,VWS V14.01,2013-02-09 02:46:00,
2013-02-08 20:47:00,38.5,17.9,29.09,North,353,8.3,8.3,43,0.00,,---,0.08,VWS V14.01,2013-02-09 02:47:00,
2013-02-08 20:50:00,38.5,17.9,29.09,North,353,8.3,8.3,43,0.00,,---,0.08,VWS V14.01,2013-02-09 02:50:00,
2013-02-08 20:51:00,38.5,17.9,29.09,North,353,8.3,8.3,43,0.00,,---,0.08,VWS V14.01,2013-02-09 02:51:00,
2013-02-08 20:52:00,38.5,17.9,29.09,North,353,8.3,8.3,43,0.00,,---,0.08,VWS V14.01,2013-02-09 02:52:00,
2013-02-08 20:55:00,38.5,17.9,29.09,North,353,8.3,8.3,43,0.00,,---,0.08,VWS V14.01,2013-02-09 02:55:00,
2013-02-08 20:56:00,38.5,17.9,29.09,North,4,6.3,8.3,43,0.00,,---,0.08,VWS V14.01,2013-02-09 02:56:00,
2013-02-08 20:57:00,38.5,17.9,29.09,North,4,6.3,6.3,43,0.00,,---,0.08,VWS V14.01,2013-02-09 02:57:00,
2013-02-08 21:00:00,38.5,17.9,29.09,North,353,5.8,6.3,43,0.00,,---,0.08,VWS V14.01,2013-02-09 03:00:00,
2013-02-08 21:01:00,38.5,17.9,29.09,North,353,5.8,6.3,43,0.00,,---,0.08,VWS V14.01,2013-02-09 03:01:00,
2013-02-08 21:02:00,38.5,17.9,29.09,North,353,5.8,5.8,43,0.00,,---,0.08,VWS V14.01,2013-02-09 03:02:00,
2013-02-08 21:05:00,38.5,17.9,29.09,North,353,5.8,5.8,43,0.00,,---,0.08,VWS V14.01,2013-02-09 03:05:00,
2013-02-08 21:06:00,38.5,17.9,29.09,North,353,5.8,5.8,43,0.00,,---,0.08,VWS V14.01,2013-02-09 03:06:00,
2013-02-08 21:07:00,38.5,17.9,29.09,NNW,336,4.5,4.5,43,0.00,,---,0.08,VWS V14.01,2013-02-09 03:07:00,
2013-02-08 21:10:00,38.5,18.5,29.09,North,353,8.1,8.1,44,0.00,,---,0.08,VWS V14.01,2013-02-09 03:10:00,
2013-02-08 21:11:00,38.5,18.5,29.09,WNW,301,6.3,8.1,44,0.00,,---,0.08,VWS V14.01,2013-02-09 03:11:00,
2013-02-08 21:13:00,38.5,18.5,29.09,North,353,7.2,7.2,44,0.00,,---,0.08,VWS V14.01,2013-02-09 03:13:00,
2013-02-08 21:15:00,38.5,18.5,29.09,North,353,7.2,7.2,44,0.00,,---,0.08,VWS V14.01,2013-02-09 03:15:00,
2013-02-08 21:16:00,38.5,18.5,29.09,North,353,7.2,7.2,44,0.00,,---,0.08,VWS V14.01,2013-02-09 03:16:00,
2013-02-08 21:18:00,38.5,18.5,29.09,North,353,7.2,7.2,44,0.00,,---,0.08,VWS V14.01,2013-02-09 03:18:00,
2013-02-08 21:20:00,38.5,18.5,29.12,North,353,7.2,7.2,44,0.00,,---,0.08,VWS V14.01,2013-02-09 03:20:00,
2013-02-08 21:21:00,38.5,18.5,29.12,North,353,7.2,7.2,44,0.00,,---,0.08,VWS V14.01,2013-02-09 03:21:00,
2013-02-08 21:22:00,38.5,18.5,29.12,North,353,7.2,7.2,44,0.00,,---,0.08,VWS V14.01,2013-02-09 03:22:00,
2013-02-08 21:23:00,38.5,18.5,29.12,North,353,7.2,7.2,44,0.00,,---,0.08,VWS V14.01,2013-02-09 03:23:00,
2013-02-08 21:26:00,38.3,18.8,29.09,North,353,7.2,7.2,45,0.00,,---,0.08,VWS V14.01,2013-02-09 03:26:00,
2013-02-08 21:27:00,38.3,18.8,29.09,NW,306,6.3,6.3,45,0.00,,---,0.08,VWS V14.01,2013-02-09 03:27:00,
2013-02-08 21:28:00,38.3,18.8,29.09,North,10,4.9,6.3,45,0.00,,---,0.08,VWS V14.01,2013-02-09 03:28:00,
2013-02-08 21:31:00,38.3,18.8,29.09,North,4,3.6,3.6,45,0.00,,---,0.08,VWS V14.01,2013-02-09 03:31:00,
2013-02-08 21:32:00,38.3,18.8,29.09,North,4,3.6,3.6,45,0.00,,---,0.08,VWS V14.01,2013-02-09 03:32:00,
2013-02-08 21:33:00,38.3,18.8,29.09,North,4,3.6,3.6,45,0.00,,---,0.08,VWS V14.01,2013-02-09 03:33:00,
2013-02-08 21:36:00,38.3,18.8,29.09,North,4,3.6,3.6,45,0.00,,---,0.08,VWS V14.01,2013-02-09 03:36:00,
2013-02-08 21:37:00,38.3,18.8,29.09,North,350,8.3,8.3,45,0.00,,---,0.08,VWS V14.01,2013-02-09 03:37:00,
2013-02-08 21:38:00,38.3,18.8,29.09,North,350,8.3,8.3,45,0.00,,---,0.08,VWS V14.01,2013-02-09 03:38:00,
2013-02-08 21:41:00,38.1,18.7,29.09,NNE,17,7.6,7.6,45,0.00,,---,0.08,VWS V14.01,2013-02-09 03:41:00,
2013-02-08 21:42:00,38.1,18.7,29.09,NNE,17,7.6,7.6,45,0.00,,---,0.08,VWS V14.01,2013-02-09 03:42:00,
2013-02-08 21:44:00,38.1,18.7,29.09,North,353,3.6,3.6,45,0.00,,---,0.08,VWS V14.01,2013-02-09 03:44:00,
2013-02-08 21:46:00,38.1,18.7,29.09,North,353,3.6,3.6,45,0.00,,---,0.08,VWS V14.01,2013-02-09 03:46:00,
2013-02-08 21:47:00,38.1,18.7,29.09,North,353,3.6,3.6,45,0.00,,---,0.08,VWS V14.01,2013-02-09 03:47:00,
2013-02-08 21:49:00,38.1,18.7,29.09,North,353,3.6,3.6,45,0.00,,---,0.08,VWS V14.01,2013-02-09 03:49:00,
2013-02-08 21:51:00,38.1,19.2,29.09,North,353,3.6,3.6,46,0.00,,---,0.08,VWS V14.01,2013-02-09 03:51:00,
2013-02-08 21:52:00,38.1,19.2,29.09,NW,309,5.4,5.4,46,0.00,,---,0.08,VWS V14.01,2013-02-09 03:52:00,
2013-02-08 21:54:00,38.1,19.2,29.09,NE,47,3.1,5.4,46,0.00,,---,0.08,VWS V14.01,2013-02-09 03:54:00,
2013-02-08 21:56:00,38.1,19.2,29.09,NE,47,3.1,3.1,46,0.00,,---,0.08,VWS V14.01,2013-02-09 03:56:00,
2013-02-08 21:57:00,38.1,19.2,29.09,NE,47,3.1,3.1,46,0.00,,---,0.08,VWS V14.01,2013-02-09 03:57:00,
2013-02-08 21:59:00,38.1,19.2,29.09,NE,47,3.1,3.1,46,0.00,,---,0.08,VWS V14.01,2013-02-09 03:59:00,
2013-02-08 22:01:00,38.1,19.2,29.09,NE,47,3.1,3.1,46,0.00,,---,0.08,VWS V14.01,2013-02-09 04:01:00,
2013-02-08 22:02:00,38.1,19.2,29.09,NNW,336,3.6,3.6,46,0.00,,---,0.08,VWS V14.01,2013-02-09 04:02:00,
2013-02-08 22:04:00,38.1,19.2,29.09,North,1,5.8,5.8,46,0.00,,---,0.08,VWS V14.01,2013-02-09 04:04:00,
2013-02-08 22:06:00,38.1,19.2,29.09,North,2,5.4,5.4,46,0.00,,---,0.08,VWS V14.01,2013-02-09 04:06:00,
2013-02-08 22:07:00,38.1,19.2,29.09,North,2,5.4,5.4,46,0.00,,---,0.08,VWS V14.01,2013-02-09 04:07:00,
2013-02-08 22:09:00,38.1,19.2,29.09,North,2,5.4,5.4,46,0.00,,---,0.08,VWS V14.01,2013-02-09 04:09:00,
2013-02-08 22:11:00,38.1,19.2,29.06,North,2,5.4,5.4,46,0.00,,---,0.08,VWS V14.01,2013-02-09 04:11:00,
2013-02-08 22:12:00,38.1,19.2,29.06,North,2,5.4,5.4,46,0.00,,---,0.08,VWS V14.01,2013-02-09 04:12:00,
2013-02-08 22:14:00,38.1,19.2,29.06,NNE,16,4.0,4.0,46,0.00,,---,0.08,VWS V14.01,2013-02-09 04:14:00,
2013-02-08 22:16:00,38.1,19.2,29.06,North,357,4.9,4.9,46,0.00,,---,0.08,VWS V14.01,2013-02-09 04:16:00,
2013-02-08 22:17:00,38.1,19.2,29.06,North,357,4.9,4.9,46,0.00,,---,0.08,VWS V14.01,2013-02-09 04:17:00,
2013-02-08 22:19:00,38.1,19.2,29.06,North,357,8.7,8.7,46,0.00,,---,0.08,VWS V14.01,2013-02-09 04:19:00,
2013-02-08 22:21:00,38.1,19.2,29.06,NNE,21,7.6,7.6,46,0.00,,---,0.08,VWS V14.01,2013-02-09 04:21:00,
2013-02-08 22:22:00,38.1,19.2,29.06,NNE,21,7.6,7.6,46,0.00,,---,0.08,VWS V14.01,2013-02-09 04:22:00,
2013-02-08 22:24:00,38.1,19.2,29.06,NNE,21,7.6,7.6,46,0.00,,---,0.08,VWS V14.01,2013-02-09 04:24:00,
2013-02-08 22:27:00,38.1,19.2,29.06,NNE,21,7.6,7.6,46,0.00,,---,0.08,VWS V14.01,2013-02-09 04:27:00,
2013-02-08 22:28:00,38.1,19.2,29.06,NNE,21,7.6,7.6,46,0.00,,---,0.08,VWS V14.01,2013-02-09 04:28:00,
2013-02-08 22:29:00,38.1,19.2,29.06,North,353,2.7,2.7,46,0.00,,---,0.08,VWS V14.01,2013-02-09 04:29:00,
2013-02-08 22:32:00,38.1,19.7,29.06,North,353,2.7,2.7,47,0.00,,---,0.08,VWS V14.01,2013-02-09 04:32:00,
2013-02-08 22:33:00,38.1,19.7,29.06,North,349,4.0,4.0,47,0.00,,---,0.08,VWS V14.01,2013-02-09 04:33:00,
2013-02-08 22:35:00,38.1,19.7,29.06,North,10,3.6,4.0,47,0.00,,---,0.08,VWS V14.01,2013-02-09 04:35:00,
2013-02-08 22:37:00,38.1,19.7,29.06,North,10,3.6,3.6,47,0.00,,---,0.08,VWS V14.01,2013-02-09 04:37:00,
2013-02-08 22:38:00,38.1,19.7,29.06,North,10,3.6,3.6,47,0.00,,---,0.08,VWS V14.01,2013-02-09 04:38:00,
2013-02-08 22:40:00,38.1,19.7,29.06,North,10,3.6,3.6,47,0.00,,---,0.08,VWS V14.01,2013-02-09 04:40:00,
2013-02-08 22:42:00,38.1,19.7,29.06,North,10,3.6,3.6,47,0.00,,---,0.08,VWS V14.01,2013-02-09 04:42:00,
2013-02-08 22:43:00,37.9,19.0,29.06,North,10,3.6,3.6,46,0.00,,---,0.08,VWS V14.01,2013-02-09 04:43:00,
2013-02-08 22:45:00,37.9,19.0,29.06,NNW,333,4.9,4.9,46,0.00,,---,0.08,VWS V14.01,2013-02-09 04:45:00,
2013-02-08 22:47:00,37.9,19.0,29.06,North,11,5.4,5.4,46,0.00,,---,0.08,VWS V14.01,2013-02-09 04:47:00,
2013-02-08 22:48:00,37.9,19.0,29.06,NNE,14,3.6,5.4,46,0.00,,---,0.08,VWS V14.01,2013-02-09 04:48:00,
2013-02-08 22:50:00,37.9,19.0,29.06,NNE,14,3.6,3.6,46,0.00,,---,0.08,VWS V14.01,2013-02-09 04:50:00,
2013-02-08 22:52:00,37.9,19.0,29.06,NNE,14,3.6,3.6,46,0.00,,---,0.08,VWS V14.01,2013-02-09 04:52:00,
2013-02-08 22:53:00,37.9,19.0,29.06,NNE,14,3.6,3.6,46,0.00,,---,0.08,VWS V14.01,2013-02-09 04:53:00,
2013-02-08 22:55:00,37.9,19.0,29.06,NNE,14,3.6,3.6,46,0.00,,---,0.08,VWS V14.01,2013-02-09 04:55:00,
2013-02-08 22:57:00,37.9,19.0,29.06,North,0,6.3,6.3,46,0.00,,---,0.08,VWS V14.01,2013-02-09 04:57:00,
2013-02-08 22:58:00,37.8,18.9,29.06,North,0,6.3,6.3,46,0.00,,---,0.08,VWS V14.01,2013-02-09 04:58:00,
2013-02-08 23:00:00,37.8,18.9,29.06,NNE,18,2.7,2.7,46,0.00,,---,0.08,VWS V14.01,2013-02-09 05:00:00,
2013-02-08 23:05:00,37.6,18.7,29.06,North,1,3.6,3.6,46,0.00,,---,0.00,VWS V14.01,2013-02-09 05:05:00,
2013-02-08 23:10:00,37.0,18.2,29.06,North,4,7.6,7.6,46,0.00,,---,0.00,VWS V14.01,2013-02-09 05:10:00,
2013-02-08 23:15:00,37.0,18.2,29.06,North,2,5.8,5.8,46,0.00,,---,0.00,VWS V14.01,2013-02-09 05:15:00,
2013-02-08 23:20:00,37.0,18.2,29.06,North,0,5.4,5.4,46,0.00,,---,0.00,VWS V14.01,2013-02-09 05:20:00,
2013-02-08 23:25:00,36.5,18.2,29.09,North,357,5.4,5.4,47,0.00,,---,0.00,VWS V14.01,2013-02-09 05:25:00,
2013-02-08 23:26:00,36.5,18.2,29.09,North,353,5.8,5.8,47,0.00,,---,0.00,VWS V14.01,2013-02-09 05:26:00,
2013-02-08 23:30:00,36.5,18.2,29.09,NNW,341,5.4,5.4,47,0.00,,---,0.00,VWS V14.01,2013-02-09 05:30:00,
2013-02-08 23:31:00,36.5,18.2,29.09,North,353,5.4,5.4,47,0.00,,---,0.00,VWS V14.01,2013-02-09 05:31:00,
2013-02-08 23:35:00,36.1,18.4,29.09,North,353,5.4,5.4,48,0.00,,---,0.00,VWS V14.01,2013-02-09 05:35:00,
2013-02-08 23:36:00,36.1,18.4,29.09,NNW,337,5.4,5.4,48,0.00,,---,0.00,VWS V14.01,2013-02-09 05:36:00,
2013-02-08 23:40:00,36.1,18.4,29.09,NNW,348,4.9,4.9,48,0.00,,---,0.00,VWS V14.01,2013-02-09 05:40:00,
2013-02-08 23:41:00,36.1,18.4,29.09,North,9,3.6,4.9,48,0.00,,---,0.00,VWS V14.01,2013-02-09 05:41:00,
2013-02-08 23:45:00,36.1,18.4,29.09,North,9,3.6,3.6,48,0.00,,---,0.00,VWS V14.01,2013-02-09 05:45:00,
2013-02-08 23:46:00,36.1,18.4,29.09,North,9,3.6,3.6,48,0.00,,---,0.00,VWS V14.01,2013-02-09 05:46:00,
2013-02-08 23:50:00,35.8,18.5,29.09,North,8,3.6,3.6,49,0.00,,---,0.00,VWS V14.01,2013-02-09 05:50:00,
2013-02-08 23:51:00,35.8,18.5,29.09,North,8,3.6,3.6,49,0.00,,---,0.00,VWS V14.01,2013-02-09 05:51:00,
2013-02-08 23:55:00,35.8,18.5,29.09,NW,319,6.3,6.3,49,0.00,,---,0.00,VWS V14.01,2013-02-09 05:55:00,
2013-02-08 23:56:00,35.8,18.5,29.09,NW,319,6.3,6.3,49,0.00,,---,0.00,VWS V14.01,2013-02-09 05:56:00,